     2              OBSERVATION DATA    GPS                 RINEX VERSION / TYPE
teqc 2002Apr3 20041109 01:33:11UTC                          PGM / RUN BY / DATE
                                                            COMMENT
L2: 1 -> 1; 5 -> 5; 60 -> 9                                 COMMENT
L2: 1 -> 1; 5 -> 5; 60 -> 9                                 COMMENT
L2: 1 -> 1; 5 -> 5; 60 -> 9                                 COMMENT
L2: 1 -> 1; 5 -> 5; 60 -> 9                                 COMMENT
L2: 1 -> 1; 5 -> 5; 60 -> 9                                 COMMENT
Original Marker Name: 7368                                  COMMENT
Campaign Name: CSRC/Caltrans post-San Simeon                COMMENT
4-Character Station Name: U145                              COMMENT
6-Character Antenna Code: TRZEPH                            COMMENT
Vertical Measurement Point: BPA                             COMMENT
Vertical Offset to Rinex Ref. Point: 0.0000                 COMMENT
Radial Measurement Point: RRP                               COMMENT
Radial Offset to Rinex Ref. Point: 0.0000                   COMMENT
Antenna Height from Field Measurement: 2.0000 m             COMMENT
Original XYZ: -2651105.9563 -4475180.2101 3679288.4188      COMMENT
New XYZ position is based on association with SCEC monument COMMENT
E1E9I8V0+0011. Position of that monument is believed to be  COMMENT
valid to within 1 m horizontally; vertical accuracy         COMMENT
should be no worse than 3-times this value.                 COMMENT
                                                            COMMENT
Revised Rinex header created by UCSD GPS archive for        COMMENT
GSAC on 11-Feb-2005 (2005:042) 22:00:43 GMT                 COMMENT
For assistance contact dagnew@ucsd.edu                      COMMENT
or anderson@python.ucsd.edu                                 COMMENT
                                                            COMMENT
U1450                                                       MARKER NAME
7368                                                        MARKER NUMBER
K. A. Forsberg CALIF DEPT TRANSPORTATION DISTRICT 5         OBSERVER / AGENCY
0220247368 TRIMBLE 5700 NP 2.01 / SP 0.00                   REC # / TYPE / VERS
12200350 TRM41249.00                                        ANT # / TYPE
 -2529313.0000 -4621238.0000  3583811.0000                  APPROX POSITION XYZ
        2.0000        0.0000        0.0000                  ANTENNA: DELTA H/E/N
     1     1     0                                          WAVELENGTH FACT L1/2
     7    C1    L1    L2    P1    P2    S1    S2            # / TYPES OF OBSERV
     0                                                      INTERVAL
  2004     7     1    17    57   30.000000                  TIME OF FIRST OBS
  2004     7     1    18    44   30.000000                  TIME OF LAST OBS
                                                            END OF HEADER
 04  7  1 17 57 30.0000000  0  8G 3G 9G14G15G18G19G21G22
  21775284.0444    -139746.94549   -103967.09047                  21775282.7274
        47.5004         36.5004
  23386851.1954    -184092.37149   -126405.35246                  23386850.5874
        43.0004         24.5004
  20494360.0944    -318358.57449   -234484.12148                  20494358.4184
        53.0004         42.0004
  19952211.8974    -195241.37949   -144110.76648                  19952210.4234
        51.2504         42.2504
  22252014.6214     -72140.28549    -56310.89547                  22252012.4984
        44.0004         32.7504
  22591493.4124    -324641.93049   -235908.24247                  22591489.7264
        46.7504         32.7504
  22608638.7904     -25511.34049    -22627.12947                  22608637.0644
        46.0004         32.0004
  20787850.2684    -158505.95749   -117801.92648                  20787846.6184
        51.0004         40.7504
 04  7  1 17 57 45.0000000  0  8G 3G 9G14G15G18G19G21G22
  21769457.4104    -170363.34049   -127824.02747                  21769456.4274
        47.7504         36.0004
  23379002.6874    -225336.61749   -158543.71546                  23379001.6584
        43.5004         24.7504
  20481079.2764    -388151.84049   -288868.48448                  20481077.1384
        51.2504         42.2504
  19944036.4364    -238201.87949   -177586.48448                  19944035.2684
        51.2504         42.0004
  22248929.1384     -88353.48449    -68944.56247                  22248927.1304
        45.0004         33.0004
  22577949.5424    -395815.33649   -291368.04347                  22577945.4494
        46.2504         32.5004
  22607552.8094     -31219.46949    -27075.07847                  22607550.9494
        46.2504         32.5004
  20781198.1964    -193461.88349   -145040.32448                  20781194.7464
        51.0004         40.5004
 04  7  1 17 58  0.0000000  0  8G 3G 9G14G15G18G19G21G22
  21763645.5314    -200903.59449   -151621.64547                  21763645.0224
        47.5004         36.2504
  23371173.8624    -266479.77049   -190603.31646                  23371172.1204
        43.2504         22.5004
  20467813.3084    -457864.26249   -343189.84848                  20467811.1684
        51.2504         41.7504
  19935873.5354    -281099.16449   -211012.94948                  19935871.8054
        51.7504         41.7504
  22245839.2634    -104592.43749    -81598.32447                  22245836.8034
        46.2504         33.5004
  22564421.1674    -466908.38349   -346765.20747                  22564417.0074
        47.2504         32.2504
  22606470.3154     -36905.19949    -31505.54347                  22606468.7874
        45.5004         32.0004
  20774545.8244    -228421.13749   -172281.30948                  20774541.8874
        51.5004         40.2504
 04  7  1 17 58 15.0000000  0  8G 3G 9G14G15G18G19G21G22
  21757850.4974    -231360.35249   -175354.20747                  21757849.6694
        48.5004         35.5004
  23363364.7764    -307514.30949   -222578.27746                  23363363.5264
        43.5004         22.5004
  20454564.1624    -527488.24649   -397442.30548                  20454562.1984
        51.0004         42.0004
  19927723.5714    -323925.68049   -244384.26648                  19927722.0514
        52.0004         41.7504
  22242745.5664    -120849.89849    -94266.48847                  22242743.4064
        47.0004         32.7504
  22550908.8704    -537913.38749   -402093.79747                  22550905.2444
        45.5004         31.5004
  22605394.4144     -42561.35949    -35912.98447                  22605392.4704
        44.5004         31.5004
  20767893.7824    -263376.49249   -199519.25848                  20767890.4474
        50.2504         40.7504
 04  7  1 17 58 30.0000000  0  8G 3G 9G14G15G18G19G21G22
  21752069.7874    -261736.62549   -199024.03947                  21752069.8824
        49.2504         36.0004
  23355575.8664    -348443.00849   -254470.75846                  23355575.6494
        44.2504         25.2504
  20441331.3104    -597026.57849   -451628.02048                  20441329.3554
        51.5004         42.0004
  19919587.0354    -366684.10249   -277702.52348                  19919585.5164
        51.7504         41.7504
  22239647.7904    -137128.69949   -106951.28147                  22239645.8154
        47.0004         33.7504
  22537413.9144    -608832.90249   -457355.75047                  22537409.7674
        47.5004         32.5004
  22604322.7544     -48190.63749    -40299.48447                  22604321.4354
        45.7504         32.0004
  20761242.2584    -298330.63749   -226756.25848                  20761238.5514
        51.0004         40.5004
 04  7  1 17 58 45.0000000  0  8G 3G 9G14G15G18G19G21G22
  21746304.9894    -292032.70749   -222631.39147                  21746304.2474
        49.0004         36.2504
  23347807.7714    -389266.02749   -286280.89847                  23347808.1204
        45.0004         26.5004
  20428115.1714    -666479.38749   -505747.07848                  20428113.2084
        51.5004         41.7504
  19911463.4144    -409374.46149   -310967.74248                  19911462.1074
        52.0004         42.0004
  22236545.9794    -153428.88349   -119652.74247                  22236544.2444
        46.5004         33.2504
  22523934.2074    -679666.83649   -512551.05147                  22523930.3894
        47.2504         32.5004
  22603256.7564     -53793.19949    -44665.15247                  22603255.3434
        44.5004         32.2504
  20754590.9224    -333283.80949   -253992.50448                  20754587.2964
        51.0004         40.7504
 04  7  1 17 59  0.0000000  0  8G 3G 9G14G15G18G19G21G22
  21740554.6254    -322249.52049   -246176.97747                  21740553.7834
        48.5004         36.2504
  23340059.4054    -429983.99649   -318009.19546                  23340059.4764
        45.5004         25.5004
  20414915.0334    -735847.07049   -559799.81648                  20414913.0804
        51.2504         41.7504
  19903352.5374    -451997.22749   -344180.29748                  19903351.2814
        52.0004         41.7504
  22233439.6194    -169751.32049   -132371.54347                  22233438.2564
        47.2504         33.7504
  22510471.3874    -750415.78549   -567680.09447                  22510467.8444
        47.7504         32.7504
  22602195.9824     -59369.93749    -49010.71547                  22602194.1814
        46.5004         32.7504
  20747939.6514    -368236.77349   -281228.59048                  20747936.2604
        51.5004         40.2504
 04  7  1 17 59 15.0000000  0  8G 3G 9G14G15G18G19G21G22
  21734819.5434    -352388.57849   -269661.98047                  21734818.6854
        48.0004         35.7504
  23332331.4674    -470598.21549   -349656.64147                  23332330.9854
        44.5004         26.5004
  20401730.7704    -805130.84449   -613787.17248                  20401728.2974
        51.2504         41.7504
  19895254.1504    -494553.59049   -377341.10248                  19895253.0044
        51.0004         41.7504
  22230329.7294    -186097.23049   -145108.62547                  22230327.7844
        46.7504         32.5004
  22497023.9054    -821080.76649   -622743.71547                  22497020.4024
        47.5004         32.7504
  22601139.2884     -64922.25049    -53337.22747                  22601137.5534
        43.0004         32.7504
  20741288.1984    -403190.97749   -308465.63348                  20741284.0274
        49.5004         40.2504
 04  7  1 17 59 30.0000000  0  8G 3G 9G14G15G18G19G21G22
  22028892.6294    -382445.49249   -293082.96947                  22028891.7614
        48.2504         35.5004
  23624416.5534    -511103.19149   -381218.97347                  23624416.4474
        44.0004         28.0004
  20688356.0804    -874323.39849   -667703.44148                  20688354.3324
        51.5004         42.2504
  20186962.1374    -537037.96949   -410445.82448                  20186960.8264
        51.5004         41.7504
  22527007.0104    -202463.00449   -157861.20347                  22527005.7724
        48.0004         32.5004
  22783386.7664    -891654.20349   -677736.00447                  22783383.2954
        47.2504         33.2504
  22899880.7124     -70447.25849    -57642.48047                  22899879.0214
        46.7504         33.0004
  21034429.5534    -438141.48449   -335699.80548                  21034426.1694
        50.7504         40.5004
 04  7  1 17 59 45.0000000  0  8G 3G 9G14G15G18G19G21G22
  22023187.6244    -412422.50849   -316441.69147                  22023187.1984
        49.5004         36.0004
  23616728.0784    -551502.49649   -412698.94547                  23616728.5884
        44.2504         26.0004
  20675205.1254    -943431.89549   -721554.21548                  20675203.3044
        50.7504         42.5004
  20178890.8514    -579454.00449   -443497.29348                  20178889.4824
        51.7504         42.5004
  22523889.5004    -218848.82049   -170629.38747                  22523887.8714
        47.5004         33.2504
  22769973.1404    -962143.42649   -732662.68047                  22769969.8754
        46.5004         33.5004
  22898834.5634     -75943.94549    -61925.64847                  22898832.7824
        44.0004         32.7504
  21027778.8824    -473091.09849   -362933.28548                  21027775.4684
        50.0004         40.7504
 04  7  1 18  0  0.0000000  0  8G 3G 9G14G15G18G19G21G22
  22017497.9444    -442323.49249   -339741.17647                  22017497.4874
        49.5004         36.0004
  23609060.2894    -591798.89849   -444098.74647                  23609060.1324
        44.5004         26.5004
  20662070.3824   -1012457.16849   -775340.14148                  20662068.2774
        51.2504         42.2504
  20170831.6744    -621804.28549   -476497.52748                  20170830.2714
        51.2504         42.5004
  22520766.5924    -235259.29349   -183416.78547                  22520764.6224
        48.7504         32.7504
  22756575.5784   -1032549.14549   -787524.28147                  22756572.3184
        46.5004         32.7504
  22897793.1204     -81417.40649    -66190.71947                  22897791.6524
        44.7504         32.2504
  21021127.8354    -508043.12549   -390168.63748                  21021124.4254
        50.5004         40.7504
 04  7  1 18  0 15.0000000  0  8G 3G 9G14G15G18G19G21G22
  22011822.4354    -472147.66449   -362980.79347                  22011822.1444
        49.0004         36.2504
  23601411.6614    -631991.69949   -475417.81647                  23601411.1034
        45.0004         27.7504
  20648951.0904   -1081398.42649   -829060.59448                  20648949.4124
        51.0004         42.2504
  20162785.2514    -664087.99649   -509445.87948                  20162784.1484
        52.0004         42.2504
  22517639.0874    -251693.66849   -196222.79747                  22517637.5894
        48.0004         33.2504
  22743194.0894   -1102870.21149   -842319.91447                  22743190.4724
        47.5004         32.5004
  22896755.8544     -86867.03949    -70437.22347                  22896754.5974
        44.5004         32.5004
  21014476.5274    -542996.80549   -417405.28548                  21014472.8054
        50.7504         41.2504
 04  7  1 18  0 30.0000000  0  8G 3G 9G14G15G18G19G21G22
  22006161.7544    -501894.37549   -386160.07447                  22006161.4494
        49.0004         36.0004
  23593783.3384    -672079.92249   -506655.40246                  23593782.4694
        44.5004         25.2504
  20635847.9024   -1150254.62949   -882714.77048                  20635846.1814
        51.0004         42.2504
  20154752.0224    -706304.05549   -542341.52048                  20154750.5904
        51.7504         42.2504
  22514507.6984    -268151.19949   -209046.87947                  22514505.6064
        48.5004         32.7504
  22729828.5194   -1173105.68049   -897048.85547                  22729825.0714
        47.2504         32.0004
  22895723.2924     -92291.99649    -74664.50847                  22895721.9734
        46.0004         32.7504
  21007824.7074    -577951.37949   -444642.62548                  21007821.1994
        51.0004         40.5004
 04  7  1 18  0 45.0000000  0  8G 3G 9G14G15G18G19G21G22
  22000516.7094    -531561.28149   -409277.16447                  22000515.8284
        49.2504         36.0004
  23586175.1724    -712060.80949   -537809.35246                  23586174.6774
        43.7504         25.5004
  20622761.7424   -1219022.97749   -936300.48448                  20622759.9304
        50.7504         42.0004
  20146732.4924    -748449.62949   -575182.23448                  20146730.7674
        51.5004         42.0004
  22511371.8984    -284629.17649   -221886.87547                  22511369.8674
        48.2504         32.5004
  22716480.2854   -1243252.62149   -951708.80547                  22716476.7294
        47.2504         33.0004
  22894696.9174     -97689.68449    -78870.53547                  22894695.0674
        46.0004         32.2504
  21001173.3174    -612904.21149   -471878.60948                  21001169.8724
        51.0004         40.7504
 04  7  1 18  1  0.0000000  0  8G 3G 9G14G15G18G19G21G22
  21994886.4264    -561148.16849   -432331.89547                  21994885.7064
        48.7504         36.0004
  23578587.1344    -751934.11349   -568879.47746                  23578586.6904
        43.5004         25.5004
  20609692.4694   -1287703.14149   -989817.49248                  20609690.8334
        51.2504         41.5004
  20138725.4684    -790524.21549   -607967.63748                  20138723.9124
        51.2504         42.0004
  22508232.4434    -301127.32049   -234742.58647                  22508230.7534
        48.2504         33.7504
  22703148.3214   -1313310.64849  -1006299.48047                  22703145.1574
        47.0004         33.5004
  22893674.1354    -103059.91049    -83055.16447                  22893672.8214
        45.0004         32.2504
  20994522.7184    -647855.03949   -499113.02348                  20994519.1484
        51.0004         41.0004
 04  7  1 18  1 15.0000000  0  8G 3G 9G14G15G18G19G21G22
  21989271.8314    -590652.94149   -455322.63347                  21989271.3644
        49.0004         35.7504
  23571019.9414    -791697.43449   -599863.89147                  23571019.6714
        43.7504         26.0004
  20596640.0294   -1356292.66049  -1043263.86348                  20596638.2364
        51.5004         41.7504
  20130733.0734    -832525.55149   -640695.95348                  20130731.6834
        52.0004         42.0004
  22505089.8404    -317643.43049   -247612.29747                  22505087.8584
        48.2504         32.7504
  22689834.3224   -1383277.08249  -1060818.77747                  22689831.2374
        47.7504         33.2504
  22892658.4454    -108400.68449    -87216.85547                  22892657.1304
        44.5004         33.0004
  20987872.5824    -682801.75449   -526344.23848                  20987869.0674
        50.2504         40.5004
 04  7  1 18  1 30.0000000  0  8G 3G 9G14G15G18G19G21G22
  21983672.1044    -620076.35249   -478249.98047                  21983672.3234
        49.5004         36.0004
  23563474.6714    -831351.37149   -630763.07846                  23563474.0474
        42.7504         25.2504
  20583605.1984   -1424791.98049  -1096639.95748                  20583603.6754
        51.5004         42.2504
  20122754.2604    -874454.03149   -673367.50048                  20122752.8464
        51.2504         41.7504
  22501943.4894    -334178.11349   -260496.48847                  22501941.5904
        47.7504         32.7504
  22676537.4564   -1453152.42649  -1115267.09447                  22676534.4754
        47.5004         33.7504
  22891647.2944    -113712.68449    -91356.10947                  22891646.2684
        44.0004         32.0004
  20981222.7254    -717744.85549   -553572.64148                  20981219.4294
        50.5004         40.5004
 04  7  1 18  1 45.0000000  0  8G 3G 9G14G15G18G19G21G22
  21978088.7444    -649418.34449   -501113.89147                  21978088.7394
        48.7504         35.5004
  23555950.0494    -870895.45749   -661576.66046                  23555948.3584
        43.0004         25.5004
  20570587.4914   -1493200.64549  -1149945.40248                  20570585.6954
        50.2504         42.0004
  20114789.3484    -916309.18049   -705981.91048                  20114788.0184
        51.5004         42.2504
  22498792.7834    -350730.96149   -273394.82847                  22498791.1444
        48.0004         33.0004
  22663258.1574   -1522935.99649  -1169643.89147                  22663255.6574
        45.7504         34.5004
  22890641.9764    -118995.53149    -95472.66447                  22890640.6994
        46.5004         32.5004
  20974574.3914    -752684.10949   -580798.04348                  20974570.5794
        51.5004         41.0004
 04  7  1 18  2  0.0000000  0  8G 3G 9G14G15G18G19G21G22
  21972520.9744    -678677.44549   -523913.20747                  21972520.5954
        48.7504         35.5004
  23548445.9064    -910328.21149   -692303.50046                  23548444.6364
        44.7504         24.7504
  20557587.2484   -1561517.01649  -1203178.94148                  20557585.2634
        51.2504         42.0004
  20106838.7384    -958089.32049   -738537.87948                  20106837.6484
        51.5004         41.7504
  22495640.2714    -367300.52049   -286306.18447                  22495638.3584
        48.5004         33.0004
  22649996.6524   -1592626.22349  -1223947.96547                  22649993.9324
        47.2504         34.5004
  22889642.3954    -124247.66049    -99565.26647                  22889641.2204
        46.2504         32.5004
  20967926.5534    -787618.12949   -608019.36748                  20967923.1684
        50.7504         41.0004
 04  7  1 18  2 15.0000000  0  8G 3G 9G14G15G18G19G21G22
  21966969.2904    -707852.26249   -546646.84847                  21966968.6104
        49.0004         35.5004
  23540963.6344    -949647.75049   -722942.09846                  23540961.9464
        43.2504         24.7504
  20544605.4264   -1629739.19149  -1256339.07048                  20544603.3724
        51.2504         41.7504
  20098903.1094    -999792.48449   -771033.85548                  20098901.7074
        51.5004         42.0004
  22492483.8604    -383885.00449   -299229.18447                  22492481.9354
        48.5004         33.7504
  22636753.5044   -1662221.01249  -1278177.66447                  22636750.4904
        48.0004         34.5004
  22888649.7614    -129467.37149   -103632.61347                  22888647.8794
        47.0004         32.7504
  20961280.3384    -822545.02749   -635235.14148                  20961276.7974
        51.0004         40.5004
 04  7  1 18  2 30.0000000  0  8G 3G 9G14G15G18G19G21G22
  21961433.1904    -736945.24249   -569316.71947                  21961432.4154
        48.7504         35.7504
  23533502.6964    -988856.54349   -753494.41046                  23533500.8134
        44.0004         23.2504
  20531640.4844   -1697869.59849  -1309427.69548                  20531638.5074
        51.0004         42.0004
  20090981.0344   -1041420.97749   -803471.64848                  20090980.0894
        51.2504         42.0004
  22489324.8684    -400486.82849   -312165.68747                  22489322.9454
        48.5004         33.2504
  22623527.2134   -1731722.50049  -1332334.66447                  22623525.1584
        46.7504         34.7504
  22887661.9394    -134657.19549   -107676.68747                  22887660.7584
        46.0004         32.7504
  20954634.4414    -857467.34849   -662447.34848                  20954630.9224
        51.0004         40.5004
 04  7  1 18  2 45.0000000  0  8G 3G 9G14G15G18G19G21G22
  21955913.1204    -765954.36749   -591921.24647                  21955911.7974
        48.7504         34.7504
  23526062.6304   -1027952.32449   -783958.64146                  23526061.4844
        43.0004         24.0004
  20518693.3864   -1765905.75049  -1362442.87948                  20518691.3834
        50.5004         41.7504
  20083074.4564   -1082972.41049   -835849.39548                  20083073.1654
        51.5004         42.2504
  22486162.8704    -417103.70349   -325113.92247                  22486161.2644
        48.2504         32.5004
  22610320.2154   -1801128.39849  -1386417.18747                  22610317.9504
        47.0004         34.7504
  22886680.3824    -139814.99649   -111695.79347                  22886679.5624
        46.0004         33.0004
  20947990.6304    -892382.89149   -689654.27048                  20947986.7884
        51.0004         40.2504
 04  7  1 18  3  0.0000000  0  8G 3G 9G14G15G18G19G21G22
  21950409.0774    -794876.45349   -614457.95747                  21950408.7314
        48.7504         35.2504
  23518645.0554   -1066931.57449   -814332.09847                  23518644.1974
        43.5004         25.7504
  20505765.3924   -1833844.19149  -1415381.91848                  20505763.0994
        51.0004         41.7504
  20075182.4994   -1124443.20749   -868164.31248                  20075181.6854
        51.5004         42.0004
  22482998.3774    -433732.36349   -338071.33247                  22482996.7004
        48.5004         32.5004
  22597131.4954   -1870435.03549  -1440422.35247                  22597129.2824
        47.5004         34.0004
  22885705.6564    -144937.43449   -115687.35247                  22885704.4804
        45.5004         33.0004
  20941348.2354    -927288.23849   -716853.24648                  20941344.8834
        50.5004         40.2504
 04  7  1 18  3 15.0000000  0  8G 3G 9G14G15G18G19G21G22
  21944922.0784    -823713.90249   -636928.71947                  21944921.3754
        49.0004         36.0004
  23511249.1994   -1105796.52049   -844616.46946                  23511248.1844
        41.0004         23.7504
  20492855.0254   -1901686.94949  -1468246.40648                  20492853.0494
        51.2504         42.0004
  20067306.0034   -1165835.37149   -900417.94948                  20067304.6864
        51.5004         41.7504
  22479831.6464    -450375.03149   -351039.65247                  22479829.6554
        48.5004         33.0004
  22583961.0194   -1939644.27749  -1494351.62947                  22583959.3764
        46.0004         34.5004
  22884737.6274    -150026.86349   -119653.18747                  22884736.4904
        46.5004         32.7504
  20934707.4564    -962185.64549   -744046.04348                  20934704.1164
        50.2504         40.7504
 04  7  1 18  3 30.0000000  0  8G 3G 9G14G15G18G19G21G22
  21939451.2294    -852463.31649   -659330.87547                  21939450.4844
        49.2504         36.5004
  23503875.9044   -1144543.76249   -874809.12546                  23503874.8144
        43.2504         24.2504
  20479963.6214   -1969430.52749  -1521033.60548                  20479961.8764
        50.5004         41.5004
  20059445.0044   -1207145.36349   -932607.56648                  20059443.7174
        50.7504         41.7504
  22476662.5534    -467028.21549   -364016.18447                  22476660.1024
        48.5004         32.7504
  22570810.5144   -2008752.52049  -1548202.20747                  22570808.0954
        47.7504         33.7504
  22883775.1684    -155079.88349   -123590.64547                  22883774.4204
        46.0004         32.7504
  20928068.9364    -997071.75849   -771230.03148                  20928065.5044
        50.2504         40.7504
 04  7  1 18  3 45.0000000  0  8G 3G 9G14G15G18G19G21G22
  21933996.7474    -881124.99649   -681664.66847                  21933995.9814
        50.0004         35.7504
  23496525.1504   -1183173.17249   -904910.00047                  23496524.3544
        42.7504         25.7504
  20467091.7364   -2037074.85549  -1573743.47348                  20467089.7104
        50.5004         42.0004
  20051599.8084   -1248373.05949   -964733.05148                  20051598.3824
        51.5004         42.0004
  22473491.8144    -483692.02349   -377000.99247                  22473489.1334
        49.0004         32.5004
  22557679.1174   -2077759.60549  -1601973.95747                  22557676.9254
        47.0004         34.5004
  22882820.8184    -160096.64149   -127499.84447                  22882820.0074
        46.0004         33.5004
  20921432.4084   -1031946.66449   -798405.29348                  20921428.7584
        51.2504         40.7504
 04  7  1 18  4  0.0000000  0  8G 3G 9G14G15G18G19G21G22
  21928559.0174    -909700.32449   -703931.16447                  21928558.1054
        49.0004         36.0004
  23489196.4944   -1221685.93449   -934919.93747                  23489195.9514
        42.0004         26.0004
  20454238.1264   -2104621.00849  -1626376.82848                  20454236.3334
        50.5004         41.5004
  20043769.8304   -1289519.60249   -996795.29748                  20043768.4934
        51.5004         42.0004
  22470318.1844    -500367.63349   -389994.98047                  22470316.0314
        48.5004         32.5004
  22544566.2294   -2146666.55149  -1655667.66847                  22544564.3944
        47.0004         35.0004
  22881873.3114    -165078.50849   -131381.86747                  22881872.2034
        47.0004         33.0004
  20914797.9644   -1066811.54749   -825572.73848                  20914794.2224
        51.2504         40.7504
 04  7  1 18  4 15.0000000  0  8G 3G 9G14G15G18G19G21G22
  21923137.6334    -938188.03149   -726129.39847                  21923137.3744
        49.0004         36.0004
  23481889.8434   -1260080.42249   -964837.73446                  23481889.6994
        42.0004         25.5004
  20441403.4614   -2172067.19949  -1678932.29348                  20441401.2824
        50.5004         41.5004
  20035955.5474   -1330583.32449  -1028793.00448                  20035954.4364
        51.0004         41.7504
  22467142.9304    -517053.46949   -402996.94147                  22467140.4334
        48.5004         31.2504
  22531473.0294   -2215471.51649  -1709281.93047                  22531471.1474
        46.7504         34.2504
  22880932.2264    -170023.87949   -135235.43447                  22880930.8304
        46.5004         32.7504
  20908165.3194   -1101664.92249   -852731.22348                  20908162.0244
        51.0004         41.0004
 04  7  1 18  4 30.0000000  0  8G 3G 9G14G15G18G19G21G22
  21917734.1444    -966586.46949   -748258.06647                  21917733.3564
        49.5004         36.0004
  23474606.9164   -1298354.99649   -994662.09846                  23474605.4144
        42.0004         25.2504
  20428588.2654   -2239411.82049  -1731408.61348                  20428585.8704
        50.0004         42.0004
  20028157.6984   -1371562.36749  -1060724.73848                  20028156.2874
        51.2504         41.5004
  22463965.8924    -533747.91849   -416005.61347                  22463963.9964
        48.7504         32.0004
  22518399.3134   -2284172.73449  -1762815.34047                  22518397.4334
        45.2504         33.2504
  22879998.2724    -174931.16449   -139059.34447                  22879997.6624
        46.5004         33.5004
  20901535.5324   -1136505.08649   -879879.41048                  20901532.0824
        50.5004         40.5004
 04  7  1 18  4 45.0000000  0  8G 3G 9G14G15G18G19G21G22
  21912346.2544    -994899.44949   -770320.14847                  21912345.7044
        49.0004         35.5004
  23467345.3354   -1336513.14549  -1024395.73047                  23467345.4444
        43.2504         27.2504
  20415791.6484   -2306658.23449  -1783808.41848                  20415789.7724
        50.0004         42.0004
  20020375.1274   -1412460.10249  -1092593.11348                  20020373.8394
        51.7504         41.7504
  22460787.3884    -550454.53949   -429023.79347                  22460784.9604
        48.2504         32.2504
  22505345.6394   -2352773.43749  -1816270.43447                  22505343.2404
        45.0004         33.5004
  22879070.6644    -179803.93449   -142856.35247                  22879070.1364
        46.5004         33.2504
  20894907.7294   -1171335.64849   -907020.11748                  20894903.7404
        51.0004         41.2504
 04  7  1 18  5  0.0000000  0  8G 3G 9G14G15G18G19G21G22
  21906975.0234   -1023125.85949   -792314.75847                  21906974.3434
        49.0004         35.0004
  23460106.6334   -1374553.59849  -1054037.63347                  23460105.9294
        42.0004         25.7504
  20403014.0964   -2373804.94149  -1836130.52348                  20403011.9314
        50.2504         42.0004
  20012608.1774   -1453274.93449  -1124396.89148                  20012606.8374
        51.5004         41.5004
  22457605.7394    -567172.02049   -442050.40647                  22457603.9474
        48.7504         31.7504
  22492310.4314   -2421272.09849  -1869646.00847                  22492307.9334
        45.5004         34.5004
  22878150.3764    -184641.00849   -146625.53547                  22878149.0704
        45.0004         32.5004
  20888281.6794   -1206155.32049   -934152.33248                  20888277.9914
        50.5004         41.0004
 04  7  1 18  5 15.0000000  0  8G 3G 9G14G15G18G19G21G22
  21901620.3504   -1051263.31249   -814240.07047                  21901619.6954
        49.0004         35.0004
  23452890.3324   -1412473.70749  -1083585.77747                  23452890.3684
        41.5004         27.0004
  20390255.8444   -2440849.33249  -1888372.90248                  20390253.8024
        50.0004         42.5004
  20004857.9414   -1494004.28549  -1156134.05148                  20004856.5784
        51.7504         42.2504
  22454423.5754    -583897.54749   -455083.30547                  22454421.1814
        47.7504         31.7504
  22479295.1184   -2489666.00449  -1922939.96947                  22479293.0014
        46.5004         34.5004
  22877237.3124    -189439.87149   -150364.94547                  22877236.1394
        47.0004         32.7504
  20881658.0924   -1240961.58649   -961274.10248                  20881654.5004
        50.7504         40.0004
 04  7  1 18  5 30.0000000  0  8G 3G 9G14G15G18G19G21G22
  21896283.7824   -1079308.23849   -836093.27047                  21896282.8124
        48.5004         34.7504
  23445697.9864   -1450269.61349  -1113037.14847                  23445698.7004
        41.2504         25.7504
  20377518.3234   -2507787.37949  -1940532.41448                  20377515.8214
        50.2504         42.2504
  19997124.3324   -1534644.19549  -1187801.51248                  19997122.8924
        52.0004         42.2504
  22451239.5044    -600627.43749   -468119.59447                  22451237.7834
        48.2504         31.5004
  22466301.1524   -2557951.00449  -1976149.06647                  22466298.4674
        46.2504         33.2504
  22876332.1354    -194196.77749   -154071.66047                  22876331.0474
        45.7504         32.5004
  20875038.3024   -1275750.61749   -988382.44948                  20875034.7574
        50.7504         40.5004
 04  7  1 18  5 45.0000000  0  8G 3G 9G14G15G18G19G21G22
  21890965.3704   -1107256.97349   -857871.53147                  21890964.5584
        48.2504         35.0004
  23438530.7394   -1487937.52049  -1142388.77747                  23438530.0864
        42.5004         26.7504
  20364801.2964   -2574615.30149  -1992606.10948                  20364799.2124
        50.2504         42.0004
  19989408.4394   -1575190.69949  -1219396.19148                  19989407.2704
        51.7504         42.2504
  22448055.8894    -617357.91849   -481156.34447                  22448053.8974
        48.2504         32.0004
  22453328.2124   -2626123.27749  -2029270.32047                  22453325.8444
        45.7504         33.7504
  22875435.6424    -198907.99249   -157742.78547                  22875434.9274
        46.0004         32.5004
  20868421.9024   -1310518.62149  -1015474.40648                  20868418.2964
        50.2504         40.0004
 04  7  1 18  6  0.0000000  0  8G 3G 9G14G15G18G19G21G22
  21885664.0464   -1135115.37149   -879579.38347                  21885663.2364
        48.7504         35.0004
  23431385.7284   -1525482.95749  -1171644.97747                  23431385.1714
        42.2504         26.5004
  20352103.9304   -2641338.60549  -2044598.28948                  20352101.8604
        50.5004         42.0004
  19981709.6314   -1615649.29749  -1250922.38348                  19981708.0694
        52.0004         42.0004
  22444871.1234    -634094.59449   -494197.94147                  22444868.8954
        48.2504         31.2504
  22440376.2404   -2694188.10549  -2082307.84847                  22440373.0254
        46.2504         33.5004
  22874546.8784    -203579.18449   -161382.73047                  22874546.4504
        45.0004         32.0004
  20861808.7464   -1345271.36749  -1042554.47748                  20861805.1444
        50.5004         40.5004
 04  7  1 18  6 15.0000000  0  8G 3G 9G14G15G18G19G21G22
  21880379.9854   -1162882.55549   -901216.16447                  21880379.4144
        48.5004         35.7504
  23424264.4704   -1562904.93449  -1200804.98047                  23424264.5534
        41.2504         27.0004
  20339427.2984   -2707956.12949  -2096508.04348                  20339425.0324
        51.2504         41.7504
  19974027.4414   -1656018.85549  -1282379.18448                  19974026.0224
        51.5004         42.0004
  22441684.8734    -650836.60249   -507243.66847                  22441682.8964
        48.7504         31.5004
  22427444.7244   -2762144.29749  -2135260.72347                  22427441.5104
        46.5004         33.5004
  22873666.0374    -208209.38349   -164990.71947                  22873664.9134
        47.0004         31.7504
  20855198.5044   -1380007.71149  -1069621.75848                  20855194.9014
        51.5004         40.2504
 04  7  1 18  6 30.0000000  0  8G 3G 9G14G15G18G19G21G22
  21875114.3754   -1190556.10949   -922779.98847                  21875113.6264
        48.7504         35.7504
  23417167.4594   -1600200.74249  -1229866.65646                  23417165.7284
        42.5004         25.0004
  20326770.8294   -2774465.18449  -2148333.28548                  20326768.8404
        50.7504         42.0004
  19966362.8574   -1696296.58249  -1313764.43448                  19966361.4654
        52.0004         41.7504
  22438499.0434    -667581.31249   -520291.53147                  22438496.8844
        48.0004         31.5004
  22414533.8534   -2829988.93449  -2188126.67647                  22414530.9044
        46.2504         33.7504
  22872793.0314    -212796.32849   -168565.02047                  22872791.7314
        45.5004         31.2504
  20848592.1484   -1414725.15649  -1096674.32448                  20848588.5724
        50.7504         40.2504
 04  7  1 18  6 45.0000000  0  8G 3G 9G14G15G18G19G21G22
  21869866.2984   -1218134.16449   -944269.41047                  21869865.6294
        49.5004         35.5004
  23410094.9914   -1637368.51249  -1258828.56646                  23410093.6124
        41.0004         25.5004
  20314135.8664   -2840863.57049  -2200072.27748                  20314133.6224
        51.0004         41.2504
  19958715.9594   -1736480.25449  -1345076.39548                  19958714.8214
        51.5004         41.5004
  22435312.2174    -684326.52349   -533339.75047                  22435310.1914
        48.0004         31.0004
  22401645.4974   -2897719.91449  -2240904.07047                  22401642.4174
        46.2504         34.5004
  22871928.6564    -217337.90649   -172103.94147                  22871927.5924
        46.7504         32.0004
  20841990.0974   -1449421.62949  -1123710.54348                  20841986.5804
        51.0004         41.0004
 04  7  1 18  7  0.0000000  0  8G 3G 9G14G15G18G19G21G22
  21864637.1364   -1245616.11749   -965683.92647                  21864635.7324
        49.7504         36.0004
  23403046.3204   -1674407.28549  -1287689.94946                  23403046.0224
        41.5004         25.5004
  20301521.7784   -2907150.37549  -2251724.32848                  20301519.5884
        50.7504         41.5004
  19951087.5344   -1776568.95749  -1376314.34848                  19951086.4844
        52.0004         42.0004
  22432125.5784    -701071.52749   -546387.84047                  22432123.9974
        47.2504         31.5004
  22388778.2074   -2965336.20749  -2293592.08647                  22388775.0074
        46.7504         33.2504
  22871073.4824    -221833.36749   -175606.93747                  22871071.9944
        45.0004         31.5004
  20835391.3654   -1484096.41049  -1150729.85948                  20835387.8274
        50.2504         40.0004
 04  7  1 18  7 15.0000000  0  8G 3G 9G14G15G18G19G21G22
  21859425.3654   -1273002.57849   -987024.03947                  21859424.5054
        49.5004         35.5004
  23396022.7324   -1711317.49649  -1316451.18447                  23396022.6494
        40.5004         27.0004
  20288929.0264   -2973325.97349  -2303289.72348                  20288926.6504
        50.2504         42.0004
  19943476.8634   -1816562.98449  -1407478.54348                  19943475.7684
        51.0004         42.2504
  22428939.3574    -717816.70349   -559436.03547                  22428936.4234
        48.0004         31.0004
  22375933.1384   -3032838.01249  -2346190.89847                  22375929.9684
        45.0004         33.5004
  22870226.6494    -226283.16449   -179074.36347                  22870225.6944
        45.0004         31.0004
  20828796.9814   -1518749.95349  -1177732.62548                  20828793.3914
        50.2504         40.2504
 04  7  1 18  7 30.0000000  0  8G 3G 9G14G15G18G19G21G22
  22154024.5754   -1300291.56249  -1008288.19947                  22154023.7914
        49.0004         34.7504
  23688817.0114   -1748096.35249  -1345110.05147                  23688816.2454
        40.7504         25.7504
  20576150.5604   -3039385.41849  -2354764.61348                  20576148.7804
        50.7504         41.7504
  20235677.1484   -1856459.26649  -1438566.56248                  20235676.5114
        51.5004         42.0004
  22725545.7284    -734560.42649   -572483.11347                  22725543.8294
        47.2504         31.5004
  22662903.1244   -3100220.22749  -2398696.52047                  22662900.0924
        46.2504         33.0004
  23169181.0294    -230686.78549   -182505.81247                  23169180.3264
        45.0004         31.0004
  21121999.7184   -1553379.65649  -1204716.81648                  21121996.2024
        50.7504         40.7504
 04  7  1 18  7 45.0000000  0  8G 3G 9G14G15G18G19G21G22
  22148849.8514   -1327486.68749  -1029479.21547                  22148848.8034
        49.2504         35.5004
  23681841.9514   -1784748.53149  -1373670.19946                  23681840.8594
        41.0004         25.2504
  20563600.5374   -3105337.26649  -2406155.65248                  20563598.5854
        50.5004         41.7504
  20228103.3834   -1896262.72749  -1469582.25848                  20228101.7604
        51.0004         42.2504
  22722359.1904    -751304.91049   -585530.77047                  22722357.0984
        48.0004         31.5004
  22650101.6254   -3167491.64549  -2451115.81247                  22650098.7274
        46.5004         33.5004
  23168352.3004    -235044.61349   -185901.58647                  23168352.0264
        46.5004         32.0004
  21115413.6054   -1587989.89149  -1231685.83648                  21115410.1654
        50.7504         40.7504
 04  7  1 18  8  0.0000000  0  8G 3G 9G14G15G18G19G21G22
  22143692.9514   -1354585.75849  -1050595.39147                  22143692.1334
        49.2504         35.2504
  23674892.2464   -1821271.05549  -1402129.30546                  23674890.6114
        40.0004         24.7504
  20551071.8444   -3171176.44549  -2457458.90248                  20551069.5294
        50.2504         41.5004
  20220546.7574   -1935970.00449  -1500523.00048                  20220545.9874
        51.2504         42.7504
  22719172.9374    -768048.49649   -598577.73847                  22719171.3194
        47.7504         31.2504
  22637322.6744   -3234646.69549  -2503444.42247                  22637319.7184
        46.0004         34.0004
  23167531.4984    -239355.85549   -189261.06247                  23167531.0894
        46.2504         31.5004
  21108831.4784   -1622577.77749  -1258637.44148                  21108827.8224
        50.5004         40.5004
 04  7  1 18  8 15.0000000  0  8G 3G 9G14G15G18G19G21G22
  22138554.4404   -1381589.22349  -1071637.07047                  22138553.4904
        49.0004         35.5004
  23667966.3314   -1857664.05949  -1430487.51646                  23667964.9584
        41.2504         25.0004
  20538564.4104   -3236903.08649  -2508674.46548                  20538562.0724
        49.5004         42.2504
  20213009.2324   -1975581.01649  -1531388.72748                  20213008.1634
        51.5004         42.0004
  22715986.8844    -784791.40249   -611624.18047                  22715984.7464
        48.0004         31.2504
  22624565.9254   -3301685.55549  -2555682.50847                  22624562.7644
        45.7504         33.5004
  23166720.3844    -243620.92649   -192584.55147                  23166719.2264
        45.0004         29.7504
  21102254.0334   -1657143.56249  -1285571.82848                  21102250.4374
        49.5004         40.5004
 04  7  1 18  8 30.0000000  0  8G 3G 9G14G15G18G19G21G22
  22133433.9504   -1408496.27749  -1092603.61347                  22133432.9344
        48.0004         35.0004
  23661064.9624   -1893926.35249  -1458743.84446                  23661065.2184
        39.5004         24.7504
  20526078.6284   -3302515.95349  -2559801.36748                  20526076.6364
        49.5004         41.7504
  20205490.1934   -2015094.64849  -1562178.57848                  20205488.8954
        50.5004         42.0004
  22712801.4874    -801532.41849   -624669.15247                  22712799.3604
        47.5004         31.0004
  22611830.6304   -3368606.85949  -2607828.97747                  22611828.1434
        45.7504         34.2504
  23165917.3334    -247838.63749   -195871.11347                  23165916.2534
        44.5004         29.5004
  21095680.6904   -1691686.23449  -1312488.19948                  21095677.1284
        49.0004         40.5004
 04  7  1 18  8 45.0000000  0  8G 3G 9G14G15G18G19G21G22
  22128332.3144   -1435305.75449  -1113494.14547                  22128331.6384
        49.0004         35.0004
  23654190.2964   -1930056.66849  -1486897.37546                  23654189.8604
        38.7504         24.7504
  20513615.0474   -3368013.64849  -2610838.53548                  20513612.6914
        49.7504         41.7504
  20197989.5124   -2054509.47349  -1592891.43748                  20197988.3454
        51.7504         42.0004
  22709616.1364    -818270.12949   -637711.53947                  22709613.8984
        47.0004         30.5004
  22599119.3284   -3435409.05549  -2659882.63347                  22599116.1584
        47.0004         34.5004
  23165123.9684    -252007.82449   -199119.89147                  23165122.8494
        45.0004         31.5004
  21089112.1704   -1726204.45349  -1339385.52048                  21089108.3774
        50.5004         40.5004
 04  7  1 18  9  0.0000000  0  8G 3G 9G14G15G18G19G21G22
  22123249.7554   -1462016.50849  -1134307.72747                  22123248.5704
        48.5004         35.0004
  23647340.0774   -1966053.89849  -1514947.16446                  23647339.8244
        39.2504         22.5004
  20501173.0954   -3433394.80549  -2661784.88748                  20501170.8714
        48.7504         41.7504
  20190508.4964   -2093824.06649  -1623526.18748                  20190507.2444
        51.5004         41.5004
  22706431.9714    -835003.26649   -650750.38747                  22706430.0544
        47.0004         30.5004
  22586429.8604   -3502090.91049  -2711842.51647                  22586427.0674
        47.0004         34.0004
  23164340.0944    -256127.41049   -202330.00847                  23164339.6164
        45.2504         30.5004
  21082548.4184   -1760697.01249  -1366262.84048                  21082544.8914
        49.2504         40.2504
 04  7  1 18  9 15.0000000  0  8G 3G 9G14G15G18G19G21G22
  22118185.0164   -1488630.24649  -1155045.71547                  22118184.0554
        48.5004         35.2504
  23640515.0884   -2001919.28149  -1542894.24646                  23640514.7284
        40.2504         22.2504
  20488753.3914   -3498660.85949  -2712641.54748                  20488751.3494
        49.7504         42.0004
  20183045.6234   -2133039.70749  -1654083.83648                  20183044.4864
        51.7504         42.0004
  22703247.9804    -851733.47749   -663786.93747                  22703246.3814
        46.5004         31.0004
  22573763.5434   -3568653.64149  -2763709.58647                  22573760.7534
        47.2504         34.2504
  23163565.1794    -260198.78549   -205502.56247                  23163564.5734
        44.5004         30.5004
  21075989.1634   -1795165.28149  -1393121.23448                  21075985.6914
        49.5004         41.0004
 04  7  1 18  9 30.0000000  0  8G 3G 9G14G15G18G19G21G22
  22113139.0974   -1515148.74649  -1175709.48447                  22113137.4714
        49.0004         34.7504
  23633715.0894   -2037654.55149  -1570739.92246                  23633714.6114
        39.5004         23.5004
  20476355.8234   -3563813.35549  -2763409.72748                  20476353.1774
        48.0004         42.2504
  20175601.8154   -2172157.93749  -1684565.58248                  20175600.6744
        52.2504         42.0004
  22700064.7814    -868462.35249   -676822.43747                  22700062.9994
        46.5004         30.7504
  22561119.7204   -3635098.60949  -2815484.88347                  22561116.5034
        47.2504         34.7504
  23162800.0074    -264223.68749   -208638.89547                  23162798.8074
        43.5004         29.5004
  21069434.3384   -1829611.02749  -1419962.08648                  21069430.7314
        48.2504         40.7504
 04  7  1 18  9 45.0000000  0  8G 3G 9G14G15G18G19G21G22
  22108111.0614   -1541569.94149  -1196297.44547                  22108110.1044
        49.5004         35.0004
  23626939.8964   -2073257.32049  -1598482.37546                  23626939.9594
        39.0004         21.5004
  20463979.2504   -3628849.85949  -2814087.52048                  20463977.0724
        48.7504         41.7504
  20168177.1544   -2211176.34449  -1714969.54348                  20168175.7894
        51.2504         42.0004
  22696882.2964    -885187.54749   -689855.05947                  22696880.6154
        46.2504         31.0004
  22548498.2854   -3701423.21149  -2867166.39147                  22548495.4614
        47.2504         34.5004
  23162042.8574    -268200.04749   -211737.41047                  23162042.2094
        44.5004         30.2504
  21062884.5384   -1864031.91849  -1446783.56648                  21062880.7984
        49.0004         39.7504
 04  7  1 18 10  0.0000000  0  8G 3G 9G14G15G18G19G21G22
  22103101.8314   -1567894.54749  -1216810.13347                  22103100.3174
        49.0004         35.0004
  23620190.6864   -2108728.16849  -1626122.03946                  23620189.8344
        39.5004         23.0004
  20451625.3724   -3693770.68049  -2864675.16048                  20451623.0874
        49.0004         42.0004
  20160770.6914   -2250095.23449  -1745295.96148                  20160769.7374
        51.0004         41.7504
  22693700.1874    -901909.39849   -702885.09847                  22693698.5974
        46.7504         30.7504
  22535900.1944   -3767627.78149  -2918754.37547                  22535896.8884
        46.7504         34.5004
  23161295.6764    -272128.41449   -214798.52747                  23161294.9744
        42.7504         29.5004
  21056339.4064   -1898428.49249  -1473586.09448                  21056335.1914
        48.5004         40.0004
 04  7  1 18 10 15.0000000  0  8G 3G 9G14G15G18G19G21G22
  22098111.0724   -1594122.97349  -1237247.89147                  22098109.5394
        48.7504         34.5004
  23613465.4724   -2144067.14849  -1653658.89846                  23613465.1634
        39.5004         25.5004
  20439293.4644   -3758575.87949  -2915172.71948                  20439291.0564
        48.5004         42.0004
  20153383.9174   -2288914.69149  -1775544.89848                  20153382.7044
        51.0004         41.7504
  22690518.3714    -918628.14149   -715912.71147                  22690516.6344
        46.0004         31.0004
  22523325.0854   -3833712.31249  -2970248.81247                  22523321.6984
        47.2504         35.0004
  23160556.7804    -276008.99249   -217822.39547                  23160556.2494
        44.5004         28.7504
  21049797.7994   -1932800.79749  -1500369.71548                  21049794.3594
        48.2504         39.7504
 04  7  1 18 10 30.0000000  0  8G 3G 9G14G15G18G19G21G22
  22093138.1804   -1620255.82849  -1257611.16847                  22093136.8214
        49.2504         35.2504
  23606766.3824   -2179274.68449  -1681093.35246                  23606765.3134
        39.2504         24.5004
  20426983.3644   -3823265.84849  -2965580.48848                  20426981.1774
        49.0004         42.0004
  20146015.6344   -2327635.00849  -1805716.58248                  20146014.4584
        51.5004         42.0004
  22687337.3984    -935344.30949   -728938.31247                  22687336.0764
        47.5004         31.0004
  22510772.1374   -3899677.06249  -3021649.91047                  22510768.9224
        47.7504         35.5004
  23159827.3044    -279842.16849   -220809.34047                  23159826.6794
        43.0004         29.0004
  21043261.9624   -1967149.44149  -1527134.89148                  21043258.0654
        49.0004         40.0004
 04  7  1 18 10 45.0000000  0  8G 3G 9G14G15G18G19G21G22
  22088183.2504   -1646291.82049  -1277898.96947                  22088181.8854
        48.7504         35.0004
  23600091.4494   -2214349.38749  -1708424.32046                  23600090.9614
        39.7504         24.0004
  20414695.2034   -3887839.05549  -3015897.25448                  20414692.8694
        48.7504         42.0004
  20138666.4244   -2366254.53149  -1835809.73048                  20138665.1804
        51.5004         42.2504
  22684157.2414    -952056.23449   -741960.61747                  22684155.7504
        45.7504         30.2504
  22498242.5184   -3965520.40249  -3072956.41447                  22498239.4384
        47.2504         35.0004
  23159107.7844    -283626.55549   -223758.24247                  23159106.5864
        43.5004         29.7504
  21036730.5514   -2001472.93449  -1553880.47748                  21036726.8924
        49.5004         39.7504
 04  7  1 18 11  0.0000000  0  8G 3G 9G14G15G18G19G21G22
  22083247.3434   -1672231.89549  -1298112.02347                  22083246.0744
        49.2504         35.2504
  23593442.6264   -2249292.07049  -1735652.39146                  23593441.4394
        39.7504         25.5004
  20402429.9724   -3952296.16849  -3066123.57448                  20402427.4424
        49.0004         42.0004
  20131336.3774   -2404773.92649  -1865824.84048                  20131335.2554
        51.5004         42.0004
  22680977.5944    -968764.76649   -754980.25847                  22680976.1614
        46.0004         30.0004
  22485735.7764   -4031242.91849  -3124168.77047                  22485732.8004
        46.2504         36.0004
  23158396.7304    -287363.15249   -226669.91447                  23158396.0794
        45.2504         30.2504
  21030203.1334   -2035771.96149  -1580606.99648                  21030199.7834
        50.2504         39.7504
 04  7  1 18 11 15.0000000  0  8G 3G 9G14G15G18G19G21G22
  22078328.6744   -1698080.18049  -1318253.55947                  22078327.3884
        48.5004         33.5004
  23586817.4564   -2284106.57049  -1762780.59447                  23586817.4184
        36.2504         26.7504
  20390185.3814   -4016641.02049  -3116262.42248                  20390182.8954
        50.0004         42.0004
  20124024.9784   -2443196.92649  -1895764.84848                  20124023.7144
        51.5004         41.5004
  22677798.3844    -985473.71549   -768000.24647                  22677796.7954
        45.7504         30.0004
  22473251.6294   -4096848.33649  -3175289.86747                  22473248.5324
        47.0004         35.5004
  23157693.6394    -291055.92649   -229547.45747                  23157693.4234
        44.0004         29.0004
  21023680.3944   -2070050.53949  -1607317.59048                  21023676.9484
        50.0004         40.0004
 04  7  1 18 11 30.0000000  0  8G 3G 9G14G15G18G19G21G22
  22073427.2424   -1723834.66449  -1338322.00447                  22073426.4634
        48.5004         34.2504
  23580216.9114   -2318790.71549  -1789807.22347                  23580216.9104
        36.2504         26.5004
  20377962.4334   -4080871.21949  -3166311.92248                  20377960.1814
        49.2504         41.5004
  20116732.2214   -2481521.17649  -1925627.91048                  20116730.7824
        51.2504         42.2504
  22674619.3064   -1002180.68449   -781018.69947                  22674617.6984
        45.5004         30.2504
  22460790.0464   -4162334.18749  -3226317.80147                  22460787.3234
        46.0004         35.2504
  23156999.8704    -294702.59849   -232389.09047                  23156999.3804
        42.0004         29.7504
  21017161.8274   -2104306.33249  -1634010.42248                  21017158.5254
        48.7504         40.7504
 04  7  1 18 11 45.0000000  0  8G 3G 9G14G15G18G19G21G22
  22068544.0464   -1749495.09449  -1358317.15647                  22068543.2884
        49.0004         34.2504
  23573642.1054   -2353344.02749  -1816731.89546                  23573641.1904
        36.5004         25.5004
  20365761.5184   -4144986.27749  -3216271.70348                  20365759.4874
        48.2504         41.7504
  20109458.2834   -2519746.23849  -1955413.68448                  20109457.1884
        51.7504         42.2504
  22671439.9154   -1018885.55949   -794035.50047                  22671438.9634
        46.5004         30.7504
  22448351.1474   -4227699.87949  -3277252.10547                  22448348.2734
        46.5004         35.5004
  23156315.2274    -298302.88349   -235194.55547                  23156314.1494
        43.0004         28.5004
  21010647.4674   -2138538.99249  -1660685.23048                  21010643.9164
        48.7504         40.5004
 04  7  1 18 12  0.0000000  0  8G 3G 9G14G15G18G19G21G22
  22063679.4894   -1775060.46949  -1378238.23847                  22063678.2294
        48.5004         34.0004
  23567091.3544   -2387765.25049  -1843553.64147                  23567091.6944
        36.0004         26.5004
  20353583.4454   -4208984.89849  -3266140.75448                  20353581.0074
        48.0004         41.5004
  20102203.3304   -2557870.66449  -1985121.03548                  20102202.4214
        51.0004         42.0004
  22668262.4434   -1035586.88349   -807049.53547                  22668261.0714
        45.7504         29.7504
  22435935.5404   -4292943.93049  -3328091.62947                  22435932.9654
        44.2504         35.5004
  23155639.6974    -301855.48849   -237962.86347                  23155637.9314
        43.5004         27.2504
  21004138.1684   -2172747.15649  -1687340.94548                  21004134.3244
        48.7504         40.5004
 04  7  1 18 12 15.0000000  0  8G 3G 9G14G15G18G19G21G22
  22058832.6574   -1800531.02749  -1398085.44147                  22058831.0594
        48.5004         34.7504
  23560566.3974   -2422054.59048  -1870272.65646                  23560566.0694
        35.7504         25.5004
  20341427.1384   -4272867.09049  -3315919.08248                  20341424.4394
        48.2504         41.2504
  20094967.5824   -2595894.43749  -2014749.96148                  20094966.2404
        50.5004         42.2504
  22665084.9414   -1052284.76249   -820060.89847                  22665083.5604
        46.0004         30.0004
  22423543.4374   -4358066.28549  -3378836.32847                  22423540.4464
        46.2504         34.7504
  23154971.8934    -305360.68449   -240694.23047                  23154970.8114
        43.7504         27.5004
  20997633.3394   -2206931.00449  -1713977.72348                  20997629.2844
        49.0004         39.5004
 04  7  1 18 12 30.0000000  0  8G 3G 9G14G15G18G19G21G22
  22054003.2684   -1825908.37949  -1417860.00847                  22054002.5764
        49.5004         35.0004
  23554066.0464   -2456213.40649  -1896889.90647                  23554066.5324
        36.5004         26.5004
  20329292.6314   -4336634.04749  -3365607.61748                  20329290.4194
        47.7504         42.2504
  20087750.9514   -2633818.76649  -2044301.39548                  20087749.6954
        51.2504         41.7504
  22661907.4904   -1068980.62149   -833070.68447                  22661906.4474
        46.2504         30.5004
  22411173.6354   -4423068.17649  -3429487.14547                  22411171.0954
        45.0004         34.5004
  23154313.5214    -308820.07849   -243389.91047                  23154312.7034
        42.2504         27.7504
  20991132.3054   -2241092.06649  -1740596.73448                  20991128.8054
        48.0004         40.0004
 04  7  1 18 12 45.0000000  0  8G 3G 9G14G15G18G19G21G22
  22049192.0844   -1851192.21149  -1437561.71147                  22049191.4974
        48.7504         35.2504
  23547590.5214   -2490241.21148  -1923405.10546                  23547591.6954
        34.2504         25.0004
  20317179.9444   -4400285.33649  -3415206.02048                  20317177.6154
        46.7504         42.5004
  20080553.2924   -2671642.90249  -2073774.75848                  20080552.0844
        51.7504         41.5004
  22658730.6814   -1085673.97749   -846078.50847                  22658729.2144
        45.5004         30.7504
  22398827.7164   -4487948.80949  -3480043.47747                  22398824.5594
        45.7504         34.5004
  23153664.3054    -312233.34049   -246049.63747                  23153663.0614
        41.5004         28.0004
  20984636.0664   -2275229.74649  -1767197.53548                  20984632.5564
        46.7504         39.7504
 04  7  1 18 13  0.0000000  0  8G 3G 9G14G15G18G19G21G22
  22044398.4794   -1876382.06649  -1457190.19547                  22044397.8214
        49.2504         35.2504
  23541140.5874   -2524137.23048  -1949817.62147                  23541141.3484
        33.7504         27.0004
  20305089.8414   -4463820.11349  -3464713.63748                  20305087.4154
        47.5004         42.0004
  20073374.6044   -2709366.13749  -2103169.50048                  20073373.2984
        51.5004         41.7504
  22655554.7244   -1102364.02349   -859083.76247                  22655553.6184
        45.7504         31.0004
  22386504.0624   -4552707.39549  -3530504.72347                  22386501.4464
        45.0004         35.0004
  23153023.5294    -315599.55149   -248672.69547                  23153022.7334
        42.0004         27.7504
  20978144.7224   -2309343.43449  -1793779.62948                  20978141.1224
        47.5004         39.5004
 04  7  1 18 13 15.0000000  0  8G 3G 9G14G15G18G19G21G22
  22039623.5524   -1901477.42249  -1476745.02747                  22039622.4574
        49.2504         35.0004
  23534715.8074   -2557900.94948  -1976127.01647                  23534716.5724
        35.2504         26.5004
  20293021.7724   -4527237.56649  -3514129.82848                  20293019.6234
        46.7504         42.0004
  20066215.4064   -2746987.60249  -2132484.93748                  20066214.1704
        51.5004         42.5004
  22652379.9994   -1119050.03549   -872085.86347                  22652378.7824
        46.2504         30.5004
  22374204.4994   -4617342.99249  -3580870.12547                  22374201.7384
        44.0004         34.5004
  23152392.7764    -318918.00449   -251258.56247                  23152391.7564
        43.2504         27.5004
  20971657.5654   -2343432.26249  -1820342.35948                  20971653.9234
        46.5004         40.0004
 04  7  1 18 13 30.0000000  0  8G 3G 9G14G15G18G19G21G22
  22034865.7894   -1926477.07449  -1496225.28547                  22034865.0184
        48.5004         35.2504
  23528315.8204   -2591530.85948  -2002332.17647                  23528317.1164
        34.2504         26.5004
  20280976.7354   -4590536.27349  -3563453.49248                  20280974.1944
        47.2504         42.0004
  20059076.3484   -2784505.85549  -2161719.95348                  20059075.0524
        51.7504         42.0004
  22649205.5764   -1135730.60549   -885083.74647                  22649203.6884
        46.2504         30.7504
  22361928.4414   -4681854.14849  -3631138.55947                  22361925.4204
        44.7504         35.0004
  23151769.9864    -322187.51249   -253806.27747                  23151769.2114
        42.2504         28.2504
  20965175.7794   -2377495.03949  -1846884.79348                  20965172.0834
        48.0004         40.0004
 04  7  1 18 13 45.0000000  0  8G 3G 9G14G15G18G19G21G22
  22030126.9094   -1951380.76249  -1515630.78147                  22030126.2654
        49.0004         35.0004
  23521942.5704   -2625026.47349  -2028432.67646                  23521942.5794
        36.7504         24.0004
  20268953.6904   -4653715.63749  -3612684.15648                  20268951.4964
        47.2504         42.2504
  20051956.5434   -2821920.17249  -2190873.98048                  20051955.2964
        51.5004         42.0004
  22646032.8704   -1152405.00849   -898076.80947                  22646031.2054
        46.0004         31.5004
  22349675.8904   -4746240.16449  -3681309.47747                  22349673.4974
        45.0004         35.0004
  23151157.5874    -325407.80549   -256315.63747                  23151156.6534
        44.0004         28.0004
  20958699.0924   -2411531.12549  -1873406.42648                  20958695.0484
        49.0004         40.5004
 04  7  1 18 14  0.0000000  0  8G 3G 9G14G15G18G19G21G22
  22025406.4424   -1976187.04749  -1534960.36747                  22025405.6704
        48.2504         34.5004
  23515594.2784   -2658386.20349  -2054427.27046                  23515593.6304
        38.7504         23.0004
  20256953.9724   -4716773.88749  -3661820.44948                  20256951.9194
        47.5004         42.0004
  20044856.6314   -2859228.81649  -2219945.65248                  20044855.3374
        51.7504         41.7504
  22642861.2864   -1169071.72349   -911063.87947                  22642859.7834
        45.7504         31.2504
  22337448.0204   -4810499.11349  -3731381.38747                  22337445.4134
        43.5004         35.0004
  23150554.2274    -328577.34049   -258785.45747                  23150553.0414
        43.5004         28.0004
  20952227.2184   -2445538.88749  -1899905.98048                  20952223.4464
        49.5004         40.0004
 04  7  1 18 14 15.0000000  0  8G 3G 9G14G15G18G19G21G22
  22020704.4684   -2000895.61749  -1554213.81647                  22020703.5754
        49.0004         34.7504
  23509271.0494   -2691609.55149  -2080315.60246                  23509272.0374
        37.7504         25.0004
  20244977.6404   -4779710.43749  -3710861.92248                  20244975.4604
        48.2504         42.2504
  20037777.4344   -2896431.15249  -2248934.49248                  20037776.3834
        51.7504         42.0004
  22639691.2094   -1185730.30149   -924044.60547                  22639689.4714
        45.2504         30.2504
  22325244.0234   -4874630.43449  -3781353.84047                  22325241.5924
        44.5004         34.5004
  23149961.1054    -331695.57449   -261215.28947                  23149959.1974
        43.0004         28.0004
  20945761.7114   -2479517.86349  -1926383.10948                  20945757.6154
        49.7504         40.0004
 04  7  1 18 14 30.0000000  0  8G 3G 9G14G15G18G19G21G22
  22016021.2174   -2025506.92649  -1573391.46947                  22016020.2374
        48.5004         33.7504
  23502974.8514   -2724696.80149  -2106097.89147                  23502975.8424
        38.7504         26.5004
  20233024.5314   -4842525.46549  -3759808.68748                  20233022.6644
        48.5004         42.0004
  20030718.2784   -2933527.25449  -2277840.55148                  20030716.8154
        51.7504         42.0004
  22636522.6364   -1202380.82849   -937019.06647                  22636520.9684
        45.5004         31.2504
  22313064.5104   -4938634.00849  -3831226.75047                  22313061.9624
        45.7504         34.5004
  23149377.4784    -334762.68449   -263605.30147                  23149376.0654
        42.0004         26.7504
  20939301.1084   -2513468.25049  -1952837.96548                  20939297.3824
        50.2504         39.7504
 04  7  1 18 14 45.0000000  0  8G 3G 9G14G15G18G19G21G22
  22011356.1434   -2050020.54749  -1592493.01247                  22011355.2064
        48.0004         33.2504
  23496705.8804   -2757647.21149  -2131773.60247                  23496706.3204
        40.7504         26.0004
  20221094.3454   -4905218.23049  -3808660.19148                  20221092.1604
        49.0004         41.7504
  20023679.2954   -2970516.34049  -2306663.23448                  20023678.2224
        51.7504         42.0004
  22633356.1694   -1219022.73449   -949986.79347                  22633354.4304
        45.7504         31.0004
  22300909.4734   -5002509.07449  -3880999.53147                  22300906.5634
        45.5004         35.0004
  23148803.6724    -337778.28549   -265955.17647                  23148802.2584
        43.0004         27.0004
  20932845.8394   -2547389.35549  -1979269.99248                  20932842.0814
        51.0004         39.7504
 04  7  1 18 15  0.0000000  0  8G 3G 9G14G15G18G19G21G22
  22006710.3904   -2074435.21149  -1611517.43047                  22006709.6344
        48.5004         35.0004
  23490461.7634   -2790459.41049  -2157341.54747                  23490462.1334
        39.7504         26.0004
  20209187.7424   -4967787.15649  -3857415.19148                  20209185.7504
        49.0004         42.0004
  20016661.3724   -3007396.82049  -2335401.28148                  20016660.2224
        52.2504         42.0004
  22630190.6464   -1235654.52349   -962946.65247                  22630189.3144
        44.7504         29.2504
  22288779.1064   -5066253.97749  -3930670.87947                  22288776.6284
        44.7504         33.7504
  23148239.8154    -340740.73049   -268263.62146                  23148238.7204
        42.7504         25.5004
  20926397.0134   -2581279.67649  -2005678.05148                  20926393.2094
        50.5004         40.5004
 04  7  1 18 15 15.0000000  0  8G 3G 9G14G15G18G19G21G22
  22002083.1684   -2098750.99649  -1630464.80947                  22002082.4294
        48.7504         34.5004
  23484244.1194   -2823133.28949  -2182801.71546                  23484243.2054
        41.0004         24.0004
  20197304.9834   -5030232.00049  -3906073.50848                  20197303.0674
        49.2504         42.5004
  20009663.7334   -3044168.39849  -2364054.46948                  20009662.7014
        51.7504         42.0004
  22627028.1984   -1252275.86749   -975898.37147                  22627026.5134
        44.7504         30.5004
  22276673.7444   -5129868.36349  -3980240.52747                  22276670.8204
        45.2504         34.2504
  23147686.0694    -343650.12949   -270530.76247                  23147684.6564
        42.7504         26.2504
  20919953.5694   -2615139.12949  -2032062.03948                  20919949.8144
        50.7504         40.0004
 04  7  1 18 15 30.0000000  0  8G 3G 9G14G15G18G19G21G22
  22297267.6494   -2122967.34449  -1649334.71147                  22297266.7174
        49.0004         35.0004
  23777845.8104   -2855667.38349  -2208152.96946                  23777844.3704
        40.5004         25.0004
  20485239.2224   -5092549.47749  -3954632.58248                  20485237.0554
        48.5004         42.2504
  20302480.1344   -3080829.44149  -2392621.52748                  20302478.6874
        52.0004         42.0004
  22923659.7134   -1268886.51249   -988841.76647                  22923658.1594
        44.5004         31.0004
  22564386.6214   -5193348.77049  -4029705.77347                  22564383.3974
        43.2504         34.5004
  23446934.0594    -346507.45349   -272757.28146                  23446933.4814
        41.5004         25.0004
  21213309.1914   -2648966.30949  -2058420.88348                  21213305.3204
        50.7504         40.0004
 04  7  1 18 15 45.0000000  0  8G 3G 9G14G15G18G19G21G22
  22292677.8734   -2147086.75049  -1668129.07447                  22292677.2744
        49.5004         34.7504
  23771680.1214   -2888065.31249  -2233398.14146                  23771679.3874
        39.5004         25.0004
  20473403.3304   -5154746.86349  -4003098.07448                  20473401.1204
        49.5004         42.0004
  20295524.1224   -3117383.83249  -2421105.48448                  20295522.8044
        52.0004         41.7504
  22920500.2654   -1285487.74649  -1001777.81247                  22920498.8334
        44.5004         31.2504
  22552330.3794   -5256702.56249  -4079072.37147                  22552327.6084
        44.5004         34.7504
  23446401.1254    -349312.17249   -274942.84047                  23446399.9414
        42.7504         26.5004
  21206877.3344   -2682764.79749  -2084757.37148                  21206873.6944
        50.2504         39.7504
 04  7  1 18 16  0.0000000  0  8G 3G 9G14G15G18G19G21G22
  22288106.3644   -2171108.71549  -1686847.51647                  22288105.7194
        48.7504         35.2504
  23765541.8104   -2920325.78949  -2258536.18046                  23765541.0084
        40.5004         24.5004
  20461590.9504   -5216820.72749  -4051467.31248                  20461588.8234
        48.7504         42.0004
  20288588.5484   -3153829.84049  -2449504.99248                  20288587.5964
        51.2504         42.0004
  22917343.5814   -1302079.26249  -1014706.28547                  22917341.9024
        44.5004         31.2504
  22540299.5614   -5319926.19949  -4128337.54347                  22540296.2644
        45.2504         34.2504
  23445877.1444    -352064.53549   -277087.58247                  23445876.0594
        41.5004         26.5004
  21200451.3784   -2716533.17649  -2111070.40248                  21200447.7394
        50.0004         40.2504
 04  7  1 18 16 15.0000000  0  8G 3G 9G14G15G18G19G21G22
  22283553.8024   -2195034.27349  -1705490.81647                  22283552.5784
        48.5004         34.2504
  23759428.8654   -2952449.55949  -2283567.71146                  23759427.3884
        40.0004         23.5004
  20449802.2754   -5278771.84849  -4099740.91048                  20449800.1784
        49.2504         41.5004
  20281673.6074   -3190168.00049  -2477820.46148                  20281672.7894
        51.5004         42.0004
  22914187.7764   -1318661.77749  -1027627.74247                  22914185.7684
        44.5004         31.7504
  22528293.2784   -5383020.29349  -4177501.77347                  22528289.9384
        44.5004         34.5004
  23445363.3134    -354765.86749   -279192.57446                  23445362.3184
        42.5004         24.2504
  21194031.2994   -2750272.30149  -2137360.63748                  21194027.2234
        50.5004         40.0004
 04  7  1 18 16 30.0000000  0  8G 3G 9G14G15G18G19G21G22
  22279019.0964   -2218863.67649  -1724059.18747                  22279017.8504
        48.7504         33.7504
  23753341.5104   -2984436.85249  -2308492.89846                  23753340.0754
        40.0004         23.7504
  20438036.3024   -5340600.32449  -4147918.94548                  20438034.2164
        48.0004         42.0004
  20274779.6404   -3226398.38349  -2506051.94148                  20274778.0864
        52.5004         42.2504
  22911033.6564   -1335235.48049  -1040542.34047                  22911032.3604
        44.0004         31.5004
  22516311.1934   -5445984.79349  -4226565.03547                  22516308.1094
        44.5004         33.7504
  23444858.6824    -357416.22349   -281257.85247                  23444858.3734
        44.0004         27.0004
  21187616.2544   -2783982.19949  -2163628.09048                  21187612.8184
        50.5004         40.0004
 04  7  1 18 16 45.0000000  0  8G 3G 9G14G15G18G19G21G22
  22274503.2544   -2242595.46149  -1742551.49647                  22274501.9874
        48.2504         33.7504
  23747281.1324   -3016285.93749  -2333310.39546                  23747280.2704
        40.5004         25.5004
  20426294.6274   -5402304.40649  -4196000.04748                  20426292.2834
        48.0004         42.2504
  20267905.5324   -3262519.22349  -2534198.06248                  20267904.4184
        52.0004         42.0004
  22907882.3644   -1351798.66449  -1053448.73447                  22907880.8844
        44.5004         31.0004
  22504355.1004   -5508817.93449  -4275525.91847                  22504351.4444
        44.2504         34.5004
  23444364.3564    -360014.14849   -283282.25447                  23444364.2974
        43.0004         26.0004
  21181207.6774   -2817661.31249  -2189871.55948                  21181203.7714
        50.5004         39.7504
 04  7  1 18 17  0.0000000  0  8G 3G 9G14G15G18G19G21G22
  22270005.0644   -2266232.78149  -1760970.19947                  22270004.2284
        48.2504         34.0004
  23741246.1354   -3047999.88349  -2358022.57046                  23741245.2554
        40.5004         24.7504
  20414575.3624   -5463886.93449  -4243986.42248                  20414573.6354
        48.0004         41.7504
  20261052.4084   -3298533.33649  -2562261.02048                  20261051.3264
        51.5004         42.0004
  22904732.1144   -1368354.26649  -1066349.23847                  22904729.7094
        43.5004         31.5004
  22492422.4394   -5571522.37949  -4324386.53147                  22492419.1664
        45.0004         34.7504
  23443880.2094    -362562.45749   -285268.00846                  23443879.6574
        43.7504         25.2504
  21174803.9434   -2851312.53149  -2216093.29748                  21174800.0144
        50.2504         40.5004
 04  7  1 18 17 15.0000000  0  8G 3G 9G14G15G18G19G21G22
  22265524.7824   -2289776.61349  -1779316.07447                  22265524.2094
        48.5004         35.0004
  23735236.4104   -3079579.44549  -2382630.03546                  23735235.3574
        41.2504         22.7504
  20402880.1764   -5525348.53549  -4291878.58248                  20402877.7444
        48.5004         42.0004
  20254219.4264   -3334441.38749  -2590241.32448                  20254218.1314
        51.2504         41.7504
  22901582.9654   -1384903.09049  -1079244.43047                  22901581.0304
        44.0004         31.5004
  22480514.8264   -5634098.75449  -4373147.34847                  22480511.0984
        45.0004         34.5004
  23443404.6194    -365062.28949   -287216.00047                  23443403.8624
        43.0004         27.0004
  21168405.3354   -2884936.51249  -2242293.80548                  21168401.6754
        50.5004         39.5004
 04  7  1 18 17 30.0000000  0  8G 3G 9G14G15G18G19G21G22
  22261062.7984   -2313225.38749  -1797587.85947                  22261062.1024
        48.7504         35.0004
  23729252.7844   -3111022.72349  -2407131.30946                  23729251.4034
        39.2504         22.5004
  20391207.6964   -5586687.31249  -4339675.02748                  20391205.3694
        48.5004         41.5004
  20247406.8944   -3370241.36749  -2618137.43048                  20247405.6964
        51.5004         41.7504
  22898435.5584   -1401442.96149  -1092132.66047                  22898433.3184
        44.5004         31.5004
  22468631.8704   -5696545.03949  -4421806.79347                  22468627.6084
        45.5004         34.5004
  23442938.6934    -367511.91849   -289124.86347                  23442937.8844
        43.7504         26.2504
  21162012.5394   -2918531.35949  -2268471.60548                  21162008.7674
        50.7504         40.2504
 04  7  1 18 17 45.0000000  0  8G 3G 9G14G15G18G19G21G22
  22256618.8444   -2336578.52349  -1815785.12147                  22256618.2524
        49.0004         34.5004
  23723295.7354   -3142328.98049  -2431525.82446                  23723294.3564
        40.7504         23.7504
  20379558.8364   -5647902.49649  -4387375.16448                  20379556.5614
        48.0004         42.0004
  20240615.4264   -3405932.36349  -2645948.60548                  20240613.6024
        51.2504         41.0004
  22895289.7634   -1417973.23849  -1105013.41047                  22895287.9174
        44.5004         31.5004
  22456773.6114   -5758860.27349  -4470364.12547                  22456769.9954
        45.7504         35.0004
  23442482.2464    -369910.14849   -290993.67247                  23442481.5754
        43.5004         27.2504
  21155625.0724   -2952096.33649  -2294626.13748                  21155621.4914
        50.0004         40.0004
 04  7  1 18 18  0.0000000  0  8G 3G 9G14G15G18G19G21G22
  22252193.3004   -2359835.93049  -1833907.80147                  22252192.3784
        48.5004         34.7504
  23717364.8114   -3173498.03549  -2455813.39547                  23717363.5554
        40.5004         26.7504
  20367933.5514   -5708993.65249  -4434978.66048                  20367930.9004
        48.7504         42.0004
  20233844.3544   -3441513.91449  -2673674.49648                  20233842.8574
        52.0004         41.0004
  22892145.9454   -1434493.43749  -1117886.32047                  22892143.9994
        44.0004         31.2504
  22444940.1244   -5821043.98049  -4518818.96147                  22444936.9104
        46.5004         34.7504
  23442035.4674    -372257.25049   -292822.62947                  23442035.0224
        43.5004         27.0004
  21149243.7454   -2985631.22749  -2320757.22348                  21149240.1284
        51.2504         40.2504
 04  7  1 18 18 15.0000000  0  8G 3G 9G14G15G18G19G21G22
  22247785.4594   -2382996.79749  -1851955.24647                  22247784.6804
        48.5004         34.2504
  23711459.6024   -3204528.85949  -2479993.27746                  23711458.8744
        40.7504         24.5004
  20356331.9634   -5769959.62549  -4482484.62148                  20356329.3994
        48.7504         41.5004
  20227094.4504   -3476984.92249  -2701314.25448                  20227093.2624
        51.7504         41.7504
  22889004.6184   -1451002.53949  -1130750.58647                  22889002.5564
        44.0004         31.5004
  22433132.3634   -5883095.00449  -4567170.40647                  22433128.9034
        46.5004         34.5004
  23441598.5564    -374552.03549   -294610.82447                  23441598.3734
        42.0004         26.0004
  21142868.2684   -3019134.94549  -2346864.02348                  21142864.6054
        50.5004         40.0004
 04  7  1 18 18 30.0000000  0  8G 3G 9G14G15G18G19G21G22
  22243397.1004   -2406060.39549  -1869926.88747                  22243396.3224
        48.5004         35.0004
  23705581.2504   -3235420.60549  -2504064.78546                  23705579.7354
        40.2504         25.0004
  20344754.7374   -5830799.57049  -4529892.36748                  20344752.2214
        49.2504         42.0004
  20220365.8684   -3512344.41849  -2728867.10948                  20220364.0584
        52.0004         41.7504
  22885864.9674   -1467499.72349  -1143605.55547                  22885863.3804
        44.0004         31.2504
  22421349.5764   -5945012.34449  -4615417.68047                  22421346.2944
        46.2504         34.7504
  23441171.9524    -376793.68749   -296357.61346                  23441171.2044
        42.7504         25.2504
  21136498.5204   -3052606.53949  -2372945.78948                  21136495.1674
        51.2504         39.5004
 04  7  1 18 18 45.0000000  0  8G 3G 9G14G15G18G19G21G22
  22239026.5814   -2429026.89849  -1887822.89547                  22239025.7934
        48.0004         34.5004
  23699729.1034   -3266173.28549  -2528027.93046                  23699728.9274
        40.0004         24.5004
  20333200.9924   -5891513.37949  -4577201.82448                  20333198.7144
        48.7504         42.0004
  20213658.2834   -3547592.16849  -2756332.87948                  20213656.9054
        51.5004         42.0004
  22882727.7144   -1483984.77349  -1156451.05947                  22882726.3274
        44.0004         30.5004
  22409593.0354   -6006795.75049  -4663560.60247                  22409589.2364
        46.5004         34.2504
  23440754.8334    -378982.23849   -298063.02046                  23440755.0804
        40.7504         24.5004
  21130135.4494   -3086045.99649  -2399002.51248                  21130131.7984
        51.0004         40.2504
 04  7  1 18 19  0.0000000  0  8G 3G 9G14G15G18G19G21G22
  22234674.4544   -2451898.06249  -1905644.59047                  22234673.9044
        48.5004         35.0004
  23693903.0514   -3296788.56249  -2551883.96946                  23693902.9914
        39.0004         25.5004
  20321671.5994   -5952102.41849  -4624414.07048                  20321669.1084
        49.0004         41.5004
  20206971.7274   -3582729.65649  -2783712.73848                  20206970.0554
        51.0004         41.7504
  22879593.1104   -1500459.31649  -1169288.38347                  22879591.2424
        44.2504         30.7504
  22397861.2184   -6068446.59849  -4711600.21947                  22397857.4194
        46.2504         34.0004
  23440348.6694    -381119.24249   -299728.28146                  23440348.8124
        41.2504         22.5004
  21123778.1344   -3119454.79349  -2425035.35248                  21123774.1014
        49.7504         40.0004
 04  7  1 18 19 15.0000000  0  8G 3G 9G14G15G18G19G21G22
  22230340.3804   -2474673.17649  -1923391.45747                  22230339.5804
        48.2504         34.5004
  23688102.7674   -3327265.45349  -2575632.20747                  23688104.1674
        39.0004         26.5004
  20310165.5634   -6012565.79749  -4671528.38348                  20310163.5524
        49.5004         41.5004
  20200306.5194   -3617755.80549  -2811005.84448                  20200305.2694
        50.7504         42.0004
  22876460.4294   -1516922.38749  -1182116.76247                  22876458.7274
        45.5004         31.0004
  22386154.5194   -6129963.78149  -4759535.69147                  22386151.0134
        46.5004         34.2504
  23439951.7984    -383203.95349   -301352.81646                  23439951.4174
        41.5004         22.7504
  21117426.4574   -3152832.09849  -2451043.64148                  21117422.9204
        50.0004         40.0004
 04  7  1 18 19 30.0000000  0  8G 3G 9G14G15G18G19G21G22
  22226025.3764   -2497349.78949  -1941061.55947                  22226024.5834
        48.7504         34.2504
  23682329.7994   -3357601.23049  -2599270.52346                  23682331.4184
        40.7504         25.2504
  20298684.1984   -6072900.73449  -4718542.61748                  20298682.1904
        49.7504         41.5004
  20193663.0134   -3652667.71549  -2838209.93448                  20193661.5284
        51.7504         42.2504
  22873330.5624   -1533371.01249  -1194933.89547                  22873328.8424
        46.2504         30.2504
  22374474.5034   -6191344.34849  -4807364.70347                  22374471.1324
        45.7504         33.7504
  23439566.1284    -385233.69949   -302934.47746                  23439565.3074
        41.7504         22.5004
  21111081.6774   -3186175.05549  -2477025.17248                  21111077.9304
        50.5004         39.7504
 04  7  1 18 19 45.0000000  0  8G 3G 9G14G15G18G19G21G22
  22221727.9814   -2519931.40249  -1958657.63747                  22221727.3574
        48.7504         34.5004
  23676583.8484   -3387799.26649  -2622801.47347                  23676584.7394
        40.5004         26.0004
  20287226.5174   -6133110.29349  -4765459.15248                  20287224.7374
        50.0004         42.5004
  20187040.8054   -3687468.57049  -2865327.48848                  20187039.4934
        51.5004         42.2504
  22870202.7444   -1549808.53549  -1207742.36747                  22870200.3294
        46.2504         29.7504
  22362819.4274   -6252591.46549  -4855089.75047                  22362815.7854
        46.2504         34.2504
  23439189.8004    -387212.02749   -304476.10246                  23439189.2574
        40.5004         22.5004
  21104742.6814   -3219486.90649  -2502982.46948                  21104739.0964
        51.0004         40.5004
 04  7  1 18 20  0.0000000  0  8G 3G 9G14G15G18G19G21G22
  22217449.2134   -2542417.16049  -1976179.02047                  22217448.9944
        48.2504         35.0004
  23670864.3744   -3417858.57049  -2646224.30546                  23670865.0744
        41.5004         25.2504
  20275792.9634   -6193193.51249  -4812277.24248                  20275791.0994
        48.0004         41.7504
  20180439.7294   -3722157.21549  -2892357.60248                  20180437.9464
        51.7504         41.7504
  22867076.5324   -1566233.79349  -1220541.29347                  22867074.6104
        45.7504         30.5004
  22351190.3544   -6313704.02749  -4902709.93747                  22351186.4254
        43.5004         34.0004
  23438823.8054    -389137.87949   -305976.81246                  23438822.3364
        42.2504         22.2504
  21098409.5914   -3252766.62549  -2528914.72348                  21098406.0634
        51.7504         40.5004
 04  7  1 18 20 15.0000000  0  8G 3G 9G14G15G18G19G21G22
  22213188.9754   -2564804.49249  -1993623.71547                  22213188.4464
        49.0004         35.0004
  23665171.3334   -3447776.39849  -2669536.90246                  23665171.1324
        40.7504         24.5004
  20264384.2444   -6253147.55149  -4858994.67648                  20264382.4324
        48.7504         42.0004
  20173860.2334   -3756730.81249  -2919298.07448                  20173859.1244
        50.0004         42.7504
  22863953.9004   -1582644.07849  -1233328.54747                  22863951.5784
        46.0004         30.5004
  22339586.8644   -6374679.07849  -4950222.96547                  22339583.3704
        45.0004         34.0004
  23438468.0874    -391008.53149   -307434.51646                  23438466.4564
        42.2504         22.2504
  21092082.9864   -3286011.44149  -2554819.78148                  21092079.6314
        49.7504         41.0004
 04  7  1 18 20 30.0000000  0  8G 3G 9G14G15G18G19G21G22
  22208947.0514   -2587095.09849  -2010993.03947                  22208946.9994
        48.5004         35.0004
  23659504.6764   -3477554.30549  -2692740.45746                  23659504.0644
        41.5004         25.0004
  20253000.0964   -6312973.73849  -4905612.48048                  20252997.8254
        50.0004         42.0004
  20167302.8354   -3791190.71549  -2946149.94948                  20167301.9394
        50.7504         42.0004
  22860833.4884   -1599040.77349  -1246105.20347                  22860831.4684
        45.2504         30.0004
  22328009.5854   -6435517.91449  -4997629.85247                  22328006.5674
        46.5004         34.0004
  23438121.4684    -392825.20749   -308850.14846                  23438120.8144
        41.0004         21.7504
  21085763.4554   -3319222.75449  -2580698.72748                  21085759.8544
        50.7504         40.5004
 04  7  1 18 20 45.0000000  0  8G 3G 9G14G15G18G19G21G22
  22204723.4654   -2609291.03549  -2028288.59447                  22204722.7334
        48.2504         34.2504
  23653864.6764   -3507194.09449  -2715836.41046                  23653865.1574
        40.7504         25.0004
  20241639.5804   -6372673.94949  -4952132.12548                  20241637.4694
        49.2504         42.0004
  20160766.6434   -3825538.62149  -2972914.54748                  20160765.5364
        51.0004         42.0004
  22857715.6624   -1615425.69949  -1258872.69947                  22857713.5304
        45.0004         30.5004
  22316458.0854   -6496222.26249  -5044931.95347                  22316455.0164
        46.2504         35.0004
  23437785.5724    -394590.03549   -310225.39546                  23437785.2984
        41.0004         21.0004
  21079449.6474   -3352402.40649  -2606553.01248                  21079445.8044
        51.7504         40.5004
 04  7  1 18 21  0.0000000  0  8G 3G 9G14G15G18G19G21G22
  22200518.6034   -2631388.62149  -2045507.49647                  22200517.7724
        49.0004         34.0004
  23648251.0804   -3536691.97749  -2738821.81646                  23648251.8574
        41.0004         24.5004
  20230303.3604   -6432244.11349  -4998550.43048                  20230301.4794
        49.0004         42.2504
  20154252.3254   -3859770.41049  -2999588.67248                  20154251.3414
        52.0004         42.0004
  22854600.3654   -1631794.70349  -1271627.79747                  22854598.1444
        45.7504         29.0004
  22304932.7284   -6556787.81649  -5092125.89847                  22304930.3814
        46.5004         35.2504
  23437460.0664    -396299.14849   -311557.23046                  23437459.9224
        41.5004         21.5004
  21073142.4454   -3385546.42649  -2632379.52348                  21073138.9214
        51.5004         40.0004
 04  7  1 18 21 15.0000000  0  8G 3G 9G14G15G18G19G21G22
  22196332.2784   -2653387.13349  -2062649.20747                  22196331.6024
        48.7504         34.0004
  23642665.1904   -3566047.07049  -2761695.91846                  23642664.7524
        40.2504         25.0004
  20218992.7914   -6491683.30149  -5044866.67648                  20218990.2164
        47.5004         42.5004
  20147760.5914   -3893885.17649  -3026171.61748                  20147759.6684
        51.5004         42.0004
  22851489.2254   -1648147.01249  -1284369.86747                  22851487.1564
        45.7504         29.0004
  22293434.1244   -6617213.75449  -5139211.04347                  22293431.9304
        44.5004         35.5004
  23437146.1614    -397951.89149   -312845.11346                  23437145.7914
        41.0004         21.7504
  21066842.2884   -3418653.88349  -2658177.54748                  21066838.9074
        51.7504         40.5004
 04  7  1 18 21 30.0000000  0  8G 3G 9G14G15G18G19G21G22
  22192164.9574   -2675287.25849  -2079714.26647                  22192164.0474
        48.0004         34.5004
  23637106.0924   -3595259.97749  -2784459.25446                  23637105.4634
        40.5004         24.5004
  20207706.7984   -6550992.05949  -5091081.29348                  20207704.2844
        49.5004         42.0004
  20141291.2384   -3927883.27749  -3052663.66048                  20141290.0724
        52.0004         41.7504
  22848380.3994   -1664483.05149  -1297099.27747                  22848378.9554
        45.2504         29.7504
  22281961.9304   -6677500.43049  -5186187.68047                  22281959.4624
        47.5004         35.5004
  23436842.6124    -399548.87949   -314089.58246                  23436841.7104
        42.2504         21.0004
  21060549.2504   -3451725.35549  -2683947.54348                  21060545.3614
        52.2504         40.5004
 04  7  1 18 21 45.0000000  0  8G 3G 9G14G15G18G19G21G22
  22188016.7974   -2697084.80949  -2096699.38347                  22188016.7884
        48.0004         34.5004
  23631574.8664   -3624326.29349  -2807108.32446                  23631574.6874
        41.5004         25.0004
  20196446.2744   -6610165.82849  -5137190.71148                  20196443.7114
        50.0004         41.7504
  20134844.7634   -3961760.15649  -3079061.23448                  20134843.3714
        51.7504         42.0004
  22845275.7204   -1680798.35949  -1309812.53947                  22845273.5694
        45.0004         28.7504
  22270517.1944   -6737643.23049  -5233052.21147                  22270514.4234
        48.2504         35.5004
  23436549.8004    -401085.87949   -315287.31246                  23436549.4394
        42.2504         20.5004
  21054263.2764   -3484756.22749  -2709685.88348                  21054259.8834
        51.5004         40.2504
 04  7  1 18 22  0.0000000  0  8G 3G 9G14G15G18G19G21G22
  22183888.0224   -2718781.66849  -2113606.05147                  22183887.8764
        48.0004         35.0004
  23626071.3204   -3653247.68749  -2829644.49646                  23626071.3144
        40.7504         25.5004
  20185211.1614   -6669206.12549  -5183196.14148                  20185208.6714
        48.7504         41.7504
  20128421.0774   -3995517.40649  -3105365.59448                  20128419.6034
        52.0004         42.2504
  22842174.4774   -1697094.51649  -1322510.85947                  22842172.9394
        45.5004         29.5004
  22259099.5324   -6797643.62949  -5279805.77747                  22259097.0614
        48.5004         35.7504
  23436268.5724    -402564.30949   -316439.38746                  23436268.2644
        41.7504         21.0004
  21047985.5094   -3517748.11749  -2735393.85948                  21047981.8224
        52.5004         40.7504
 04  7  1 18 22 15.0000000  0  8G 3G 9G14G15G18G19G21G22
  22179778.2744   -2740378.14849  -2130434.50047                  22179778.1704
        48.2504         34.2504
  23620595.1774   -3682024.27349  -2852067.82846                  23620595.2174
        40.2504         23.5004
  20174001.3054   -6728113.05549  -5229097.63748                  20173999.1374
        49.2504         42.2504
  20122020.1204   -4029154.98849  -3131576.70348                  20122018.3864
        52.2504         42.0004
  22839077.7044   -1713371.48849  -1335194.23847                  22839075.7154
        45.5004         29.2504
  22247708.4094   -6857501.52749  -5326448.29747                  22247706.4014
        47.7504         35.0004
  23435998.5344    -403984.27349   -317545.89546                  23435998.4824
        42.0004         21.2504
  21041714.5044   -3550701.21149  -2761071.59448                  21041711.1974
        52.0004         40.7504
 04  7  1 18 22 30.0000000  0  8G 3G 9G14G15G18G19G21G22
  22175688.1504   -2761873.09849  -2147183.82447                  22175687.3854
        48.5004         34.2504
  23615146.9794   -3710654.70349  -2874377.28946                  23615146.4354
        40.2504         22.5004
  20162817.4374   -6786885.16049  -5274894.08648                  20162815.2254
        50.5004         42.0004
  20115641.7634   -4062671.42249  -3157693.40248                  20115640.4474
        51.5004         42.0004
  22835983.5034   -1729627.89149  -1347861.57447                  22835981.9634
        46.2504         28.7504
  22236345.6744   -6917215.52349  -5372978.69147                  22236343.5054
        48.0004         35.0004
  23435738.9134    -405344.53549   -318605.92246                  23435739.5394
        41.2504         22.2504
  21035451.4914   -3583614.05549  -2786717.97748                  21035448.0134
        51.5004         40.0004
 04  7  1 18 22 45.0000000  0  8G 3G 9G14G15G18G19G21G22
  22171617.5494   -2783265.14849  -2163852.96947                  22171616.9114
        48.7504         34.7504
  23609726.6494   -3739137.58249  -2896571.74646                  23609726.9764
        41.5004         24.0004
  20151659.5884   -6845520.83249  -5320584.21548                  20151657.0584
        49.7504         42.0004
  20109287.8154   -4096064.95749  -3183714.34448                  20109286.1814
        52.0004         42.0004
  22832894.7474   -1745861.97749  -1360511.53947                  22832892.8044
        45.0004         29.5004
  22225010.0174   -6976783.86749  -5419395.57447                  22225007.4994
        47.7504         35.2504
  23435492.8474    -406643.81249   -319618.41446                  23435492.1904
        42.2504         21.2504
  21029196.2964   -3616485.07049  -2812331.76648                  21029192.7494
        51.7504         40.5004
 04  7  1 18 23  0.0000000  0  8G 3G 9G14G15G18G19G21G22
  22167565.5114   -2804555.81649  -2180443.12547                  22167565.7094
        48.7504         34.7504
  23604334.5974   -3767474.14549  -2918652.19146                  23604333.6524
        41.7504         24.0004
  20140527.1554   -6904021.32049  -5366169.00448                  20140524.8754
        50.5004         42.0004
  20102955.9664   -4129336.85949  -3209640.51248                  20102954.5084
        52.2504         42.0004
  22829809.3684   -1762075.09849  -1373145.16447                  22829808.1034
        44.7504         29.2504
  22213702.4224   -7036207.64149  -5465699.82847                  22213699.3864
        47.7504         35.0004
  23435257.0574    -407883.51249   -320584.46546                  23435256.3534
        42.5004         20.5004
  21022948.9094   -3649315.51649  -2837913.94148                  21022945.2904
        52.5004         40.5004
 04  7  1 18 23 15.0000000  0  8G 3G 9G14G15G18G19G21G22
  22163534.0984   -2825743.61349  -2196953.09847                  22163533.9064
        47.7504         34.0004
  23598970.2874   -3795662.71949  -2940617.30946                  23598969.6704
        41.0004         22.7504
  20129421.0824   -6962384.71549  -5411646.97348                  20129418.5264
        50.0004         42.0004
  20096647.8924   -4162485.10949  -3235470.32048                  20096646.7004
        52.0004         42.5004
  22826727.9814   -1778265.31649  -1385760.93047                  22826727.1484
        45.7504         29.5004
  22202422.1784   -7095484.90649  -5511889.91847                  22202419.3194
        47.0004         34.7504
  23435032.6084    -409061.52749   -321502.48446                  23435032.5734
        42.7504         21.2504
  21016709.5974   -3682103.51649  -2863463.04348                  21016705.6994
        51.7504         41.0004
 04  7  1 18 23 30.0000000  0  8G 3G 9G14G15G18G19G21G22
  22459315.3024   -2846822.92249  -2213378.55947                  22459314.9854
        48.0004         34.0004
  23893428.5624   -3823697.09849  -2962462.32846                  23893427.9494
        40.2504         24.0004
  20418135.0084   -7020602.91049  -5457011.80148                  20418132.7784
        50.5004         42.2504
  20390157.2654   -4195503.15649  -3261198.67648                  20390156.0434
        52.7504         42.5004
  23123445.5624   -1794427.21949  -1398354.65647                  23123443.6864
        45.5004         29.7504
  22490964.0264   -7154607.27749  -5557959.29347                  22490960.9594
        48.0004         34.2504
  23734612.8984    -410173.81649   -322369.28546                  23734613.4204
        42.2504         20.5004
  21310272.0164   -3714842.59449  -2888974.01248                  21310268.3214
        52.0004         40.5004
 04  7  1 18 23 45.0000000  0  8G 3G 9G14G15G18G19G21G22
  22455324.7874   -2867793.73449  -2229719.46147                  22455323.7814
        47.2504         34.2504
  23888122.8704   -3851578.18749  -2984187.85546                  23888123.0744
        40.2504         23.0004
  20407083.2844   -7078680.55549  -5502267.10248                  20407080.7354
        49.7504         42.0004
  20383898.8484   -4228392.27349  -3286826.56648                  20383897.9284
        52.0004         41.7504
  23120375.4374   -1810559.94149  -1410925.63747                  23120374.4194
        45.5004         29.5004
  22479742.2784   -7213579.59449  -5603911.75447                  22479738.9654
        46.7504         35.2504
  23734414.6694    -411217.67649   -323182.71946                  23734414.3904
        41.2504         20.0004
  21304051.0694   -3747534.04749  -2914447.87948                  21304047.4104
        51.5004         40.2504
 04  7  1 18 24  0.0000000  0  8G 3G 9G14G15G18G19G21G22
  22451354.6564   -2888656.31649  -2245976.02047                  22451353.7304
        48.7504         34.0004
  23882845.2934   -3879305.52049  -3005793.56246                  23882845.8344
        39.7504         22.5004
  20396058.7244   -7136615.11749  -5547410.91048                  20396056.2734
        47.5004         41.7504
  20377664.9524   -4261151.50849  -3312353.24648                  20377663.9644
        52.2504         41.5004
  23117310.9844   -1826663.70349  -1423474.04747                  23117309.4634
        44.7504         28.5004
  22468549.1524   -7272399.01249  -5649745.07847                  22468545.0534
        44.0004         34.5004
  23734229.0064    -412194.37549   -323943.85546                  23734228.3114
        42.0004         21.0004
  21297839.6014   -3780177.00449  -2939883.95748                  21297835.8054
        52.0004         40.5004
 04  7  1 18 24 15.0000000  0  8G 3G 9G14G15G18G19G21G22
  22447405.5004   -2909408.84049  -2262146.82847                  22447404.8654
        48.5004         34.0004
  23877599.2764   -3906877.13349  -3027277.94946                  23877599.1054
        38.0004         22.5004
  20385061.7594   -7194404.42249  -5592441.53148                  20385059.2534
        48.7504         42.0004
  20371456.1094   -4293778.67649  -3337777.02048                  20371455.0124
        51.2504         42.0004
  23114252.2164   -1842736.30149  -1435998.16447                  23114250.8494
        44.0004         29.2504
  22457385.5534   -7331063.34849  -5695457.55147                  22457382.0794
        45.2504         34.5004
  23734055.9554    -413101.98049   -324651.13346                  23734056.0154
        41.5004         20.5004
  21291637.0364   -3812769.39549  -2965280.63748                  21291633.8954
        52.2504         41.0004
 04  7  1 18 24 30.0000000  0  8G 3G 9G14G15G18G19G21G22
  22443478.5434   -2930046.09449  -2278227.82847                  22443478.0954
        48.2504         34.0004
  23872383.9664   -3934287.54749  -3048636.72346                  23872383.5894
        40.0004         22.2504
  20374093.4414   -7252042.93449  -5637354.65248                  20374090.8414
        49.7504         42.2504
  20365273.6204   -4326268.27749  -3363093.59448                  20365272.6084
        51.5004         41.5004
  23111200.6364   -1858772.27049  -1448493.75047                  23111200.0224
        44.0004         28.2504
  22446252.4874   -7389567.09449  -5741044.88347                  22446249.1394
        48.0004         35.0004
  23733897.6194    -413934.98049   -325300.31646                  23733897.6964
        42.5004         21.0004
  21285445.7754   -3845305.76249  -2990633.65248                  21285441.6564
        51.5004         41.0004
 04  7  1 18 24 45.0000000  0  8G 3G 9G14G15G18G19G21G22
  22439572.8064   -2950569.60249  -2294220.17247                  22439572.4844
        48.0004         34.0004
  23867198.3784   -3961538.16449  -3069871.02346                  23867199.2174
        39.5004         23.5004
  20363153.5454   -7309531.95749  -5682151.29748                  20363151.2074
        48.7504         42.2504
  20359116.9424   -4358621.50449  -3388303.89848                  20359115.8614
        52.0004         41.7504
  23108156.0634   -1874772.88749  -1460961.79347                  23108154.5964
        45.0004         28.7504
  22435150.2654   -7447911.35549  -5786507.95747                  22435146.4234
        46.2504         34.7504
  23733753.6564    -414694.91449   -325892.51646                  23733753.0584
        43.0004         20.5004
  21279264.5364   -3877787.37549  -3015944.00848                  21279260.5974
        52.0004         40.7504
 04  7  1 18 25  0.0000000  0  8G 3G 9G14G15G18G19G21G22
  22435688.8214   -2970979.25049  -2310123.81647                  22435688.6514
        48.0004         34.0004
  23862043.0824   -3988628.64549  -3090980.52346                  23862043.4234
        41.0004         25.0004
  20352242.5994   -7366871.09849  -5726831.14148                  20352240.0694
        47.0004         42.5004
  20352986.4264   -4390837.85249  -3413407.55548                  20352985.4164
        51.0004         41.7504
  23105118.1434   -1890737.66849  -1473401.89847                  23105116.3694
        44.5004         27.7504
  22424077.9694   -7506095.69149  -5831846.39547                  22424074.3674
        43.7504         34.7504
  23733622.8834    -415381.41449   -326427.52346                  23733623.0244
        43.0004         21.5004
  21273093.7914   -3910213.82049  -3041211.37148                  21273090.1304
        51.5004         39.7504
 04  7  1 18 25 15.0000000  0  8G 3G 9G14G15G18G19G21G22
  22431826.3514   -2991275.28549  -2325938.91047                  22431825.9214
        48.0004         33.2504
  23856918.0174   -4015559.14549  -3111965.31646                  23856918.2064
        41.0004         24.2504
  20341359.3644   -7424060.34049  -5771394.18748                  20341357.2484
        49.0004         42.5004
  20346881.7844   -4422917.37949  -3438404.59048                  20346880.6204
        51.7504         42.0004
  23102087.3574   -1906666.71549  -1485814.15647                  23102085.8024
        44.7504         29.0004
  22413036.6434   -7564120.07049  -5877060.19147                  22413033.3174
        46.7504         34.7504
  23733506.1774    -415994.80949   -326905.57846                  23733506.1144
        42.0004         21.2504
  21266934.0564   -3942585.16049  -3066435.79348                  21266930.2584
        52.0004         39.7504
 04  7  1 18 25 30.0000000  0  8G 3G 9G14G15G18G19G21G22
  22427985.7874   -3011457.70349  -2341665.47747                  22427985.6544
        47.7504         33.0004
  23851824.2234   -4042329.57449  -3132825.39846                  23851823.9554
        39.5004         25.0004
  20330505.2414   -7481099.43749  -5815840.22748                  20330503.1804
        49.5004         42.2504
  20340803.3644   -4454859.75049  -3463294.75048                  20340802.1724
        51.5004         41.2504
  23099063.0894   -1922559.64549  -1498198.27747                  23099061.2214
        44.0004         28.2504
  22402025.5724   -7621984.01249  -5922148.97747                  22402022.1084
        48.7504         35.7504
  23733402.8584    -416534.77349   -327326.37946                  23733403.4054
        41.5004         20.5004
  21260784.5974   -3974901.06649  -3091617.03148                  21260780.7154
        51.5004         39.5004
 04  7  1 18 25 45.0000000  0  8G 3G 9G14G15G18G19G21G22
  22424167.0094   -3031528.96949  -2357305.43747                  22424166.2384
        47.5004         33.7504
  23846759.6674   -4068942.38349  -3153562.69146                  23846759.7584
        41.7504         25.0004
  20319679.3504   -7537990.67249  -5860171.04748                  20319676.9594
        50.2504         41.7504
  20334750.6244   -4486667.10549  -3488079.71548                  20334749.6584
        50.7504         41.7504
  23096044.7834   -1938418.62149  -1510555.94547                  23096043.1784
        44.5004         28.2504
  22391044.5554   -7679689.71949  -5967114.46147                  22391041.1984
        47.7504         35.5004
  23733314.1064    -417003.72349   -327691.84846                  23733314.1414
        41.2504         21.0004
  21254645.0584   -4007163.87149  -3116756.88348                  21254641.1194
        51.2504         39.5004
 04  7  1 18 26  0.0000000  0  8G 3G 9G14G15G18G19G21G22
  22420368.1024   -3051492.10549  -2372861.14147                  22420367.4674
        48.2504         34.0004
  23841724.8214   -4095400.19949  -3174179.16846                  23841725.3694
        40.7504         25.2504
  20308881.0214   -7594736.74249  -5904388.76648                  20308878.6864
        50.0004         42.2504
  20328723.1314   -4518341.98449  -3512761.44948                  20328721.9484
        51.2504         41.7504
  23093032.4634   -1954246.45749  -1522889.33647                  23093031.7364
        43.5004         28.0004
  22380092.9394   -7737239.77749  -6011958.67247                  22380089.9744
        48.0004         36.2504
  23733238.1084    -417404.40249   -328004.12146                  23733237.9824
        40.5004         19.5004
  21248515.5234   -4039376.02749  -3141857.27048                  21248511.3144
        51.5004         39.7504
 04  7  1 18 26 15.0000000  0  8G 3G 9G14G15G18G19G21G22
  22416589.9494   -3071346.92249  -2388332.44147                  22416589.6594
        47.5004         33.5004
  23836719.6954   -4121702.76649  -3194674.68446                  23836720.2524
        39.2504         24.5004
  20298110.1324   -7651337.23049  -5948493.03548                  20298107.8044
        49.7504         42.2504
  20322720.9504   -4549883.95749  -3537339.61748                  20322719.7274
        51.0004         41.5004
  23090027.2714   -1970042.76249  -1535198.16447                  23090025.0224
        42.7504         28.0004
  22369171.4474   -7794633.75049  -6056681.23847                  22369167.9104
        48.0004         35.0004
  23733174.2794    -417736.50049   -328262.97746                  23733174.7164
        40.0004         19.2504
  21242395.3104   -4071537.31249  -3166918.01648                  21242391.2064
        51.2504         39.7504
 04  7  1 18 26 30.0000000  0  8G 3G 9G14G15G18G19G21G22
  22412831.4014   -3091097.30549  -2403722.37547                  22412831.3534
        48.7504         34.5004
  23831743.2734   -4147853.91449  -3215052.23046                  23831743.6294
        39.5004         23.5004
  20287366.2114   -7707795.87549  -5992486.78148                  20287364.2964
        50.2504         42.2504
  20316743.1104   -4581296.67249  -3561817.05948                  20316742.0724
        51.0004         41.7504
  23087026.3854   -1985811.16849  -1547485.25047                  23087024.4384
        42.5004         27.0004
  22358278.2644   -7851875.16849  -6101284.94147                  22358275.6964
        48.0004         35.2504
  23733124.4104    -418003.98449   -328471.45346                  23733123.9654
        40.7504         20.0004
  21236284.2564   -4103651.44949  -3191942.01648                  21236280.2614
        51.5004         39.7504
 04  7  1 18 26 45.0000000  0  8G 3G 9G14G15G18G19G21G22
  22409092.2524   -3110745.09049  -2419032.35547                  22409092.3434
        48.0004         34.2504
  23826795.8164   -4173855.16449  -3235312.96546                  23826796.6724
        39.7504         24.5004
  20276649.4424   -7764114.18049  -6036371.16848                  20276647.2794
        50.7504         42.2504
  20310790.2754   -4612581.59449  -3586194.93448                  20310788.6754
        51.0004         42.0004
  23084030.6574   -2001553.04749  -1559751.69547                  23084029.0324
        41.7504         27.0004
  22347414.3644   -7908965.52749  -6145770.92647                  22347412.0754
        46.7504         35.5004
  23733085.7644    -418208.46149   -328630.86746                  23733085.5134
        40.5004         19.2504
  21230181.7204   -4135719.88349  -3216930.41448                  21230178.0604
        52.0004         40.0004
 04  7  1 18 27  0.0000000  0  8G 3G 9G14G15G18G19G21G22
  22405372.9314   -3130293.68049  -2434265.04347                  22405372.2874
        48.0004         33.7504
  23821875.7724   -4199709.78549  -3255459.42646                  23821876.1464
        39.5004         23.5004
  20265958.6644   -7820295.10549  -6080148.50448                  20265956.2534
        49.2504         42.0004
  20304860.5904   -4643741.70749  -3610475.55148                  20304859.5994
        51.0004         41.7504
  23081039.0484   -2017271.47349  -1571999.82047                  23081037.8964
        39.7504         27.0004
  22336578.9344   -7965907.72749  -6190141.48447                  22336576.0804
        47.0004         34.5004
  23733057.7914    -418353.05149   -328743.59446                  23733058.1534
        40.0004         20.5004
  21224087.4394   -4167745.64549  -3241885.56248                  21224083.5164
        51.0004         40.7504
 04  7  1 18 27 15.0000000  0  9G 3G 9G14G15G18G19G21G22G25
  22401671.6554   -3149742.33649  -2449419.85547                  22401671.1224
        48.0004         34.7504
  23816983.2914   -4225416.87549  -3275490.95746                  23816983.9714
        36.7504         22.7504
  20255293.9194   -7876337.68449  -6123818.04748                  20255291.2804
        48.5004         42.2504
  20298954.7044   -4674775.98049  -3634658.11348                  20298953.5954
        51.2504         41.7504
  23078053.2994   -2032965.32849  -1584228.82847                  23078050.7904
        41.7504         27.2504
  22325771.1254   -8022700.76249  -6234395.80147                  22325768.4084
        43.0004         35.0004
  23733041.7184    -418436.79749   -328808.90646                  23733042.3764
        38.7504         20.0004
  21218001.3524   -4199727.80949  -3266806.73048                  21217997.6004
        51.7504         40.0004
  24459561.4264    -101571.28159    -68014.11356                  24459563.5864
        42.7504         24.0004
 04  7  1 18 27 30.0000000  0  9G 3G 9G14G15G18G19G21G22G25
  22397989.7354   -3169093.14849  -2464498.43447                  22397989.4624
        48.0004         34.2504
  23812119.0914   -4250978.25849  -3295408.92646                  23812120.1974
        39.0004         22.7504
  20244655.5164   -7932243.71149  -6167381.18448                  20244653.0914
        48.0004         42.0004
  20293072.9394   -4705686.05149  -3658743.88748                  20293071.7624
        50.2504         42.2504
  23075071.0754   -2048636.38349  -1596440.03947                  23075069.6084
        41.0004         26.7504
  22314992.0114   -8079346.29749  -6278535.18447                  22314989.0434
        42.5004         34.5004
  23733037.5934    -418461.64149   -328828.35546                  23733037.2354
        39.5004         19.2504
  21211923.3834   -4231668.06249  -3291695.24248                  21211919.6004
        50.2504         40.5004
  24440733.0074    -200512.72349   -145111.27746                  24440735.5484
        40.2504         22.0004
 04  7  1 18 27 45.0000000  0  9G 3G 9G14G15G18G19G21G22G25
  22394324.9564   -3188351.33649  -2479504.82047                  22394324.5794
        48.5004         34.2504
  23807281.8824   -4276399.16849  -3315217.46146                  23807282.0214
        38.5004         22.5004
  20234041.9474   -7988018.23449  -6210841.84448                  20234039.7654
        49.2504         41.7504
  20287213.3564   -4736476.95749  -3682736.80548                  20287212.4514
        50.7504         42.0004
  23072092.3394   -2064289.71549  -1608637.47347                  23072090.2634
        42.5004         26.5004
  22304239.7124   -8135849.33249  -6322563.52747                  22304237.0634
        46.2504         34.5004
  23733042.2604    -418432.89149   -328806.00046                  23733043.0324
        38.5004         17.5004
  21205852.4224   -4263571.48849  -3316555.05948                  21205848.6874
        51.2504         40.0004
  24421902.6194    -299466.93449   -222218.34046                  24421905.2694
        41.5004         21.7504
 04  7  1 18 28  0.0000000  0  9G 3G 9G14G15G18G19G21G22G25
  22390677.7684   -3207516.78149  -2494438.96147                  22390677.0014
        47.5004         34.5004
  23802471.7354   -4301679.43749  -3334916.37546                  23802472.0044
        37.5004         22.0004
  20223453.5444   -8043660.91449  -6254199.77048                  20223451.4754
        49.0004         42.0004
  20281376.7844   -4767148.37549  -3706636.61348                  20281375.8064
        51.0004         42.0004
  23069117.5584   -2079925.04749  -1620820.85547                  23069114.6014
        42.2504         27.2504
  22293514.9174   -8192209.43049  -6366480.49247                  22293511.8954
        46.7504         34.7504
  23733058.3204    -418350.29749   -328741.68046                  23733057.9564
        39.5004         17.7504
  21199788.4214   -4295437.81649  -3341385.96548                  21199784.9534
        51.2504         40.0004
  24403070.4094    -398433.09849   -299334.79346                  24403072.7704
        41.5004         22.2504
 04  7  1 18 28 15.0000000  0  9G 3G 9G14G15G18G19G21G22G25
  22387048.3604   -3226588.98049  -2509300.43747                  22387047.8114
        47.5004         33.5004
  23797687.5174   -4326818.43449  -3354505.19146                  23797687.4234
        39.0004         23.0004
  20212890.3354   -8099171.05949  -6297454.42648                  20212888.0574
        48.2504         42.2504
  20275563.3054   -4797699.51249  -3730442.69148                  20275562.1004
        50.0004         42.0004
  23066145.0494   -2095541.29749  -1632989.39147                  23066144.0304
        40.7504         26.2504
  22282817.0914   -8248425.72749  -6410285.39547                  22282814.3784
        44.0004         35.0004
  23733085.0684    -418213.07049   -328634.82446                  23733083.5864
        38.7504         18.2504
  21193731.8124   -4327266.24249  -3366187.34848                  21193728.1044
        50.0004         40.5004
  24384235.2874    -497410.16449   -376459.73846                  24384237.3694
        43.0004         24.7504
 04  7  1 18 28 30.0000000  0  9G 3G 9G14G15G18G19G21G22G25
  22383436.7264   -3245569.84049  -2524090.73447                  22383435.5894
        47.2504         34.0004
  23792929.8134   -4351817.74249  -3373985.17646                  23792930.1924
        38.0004         22.2504
  20202352.1824   -8154550.16049  -6340606.96948                  20202349.6774
        48.7504         42.2504
  20269772.2304   -4828131.77349  -3754156.14548                  20269771.2944
        50.2504         41.7504
  23063177.7044   -2111140.21149  -1645144.41047                  23063175.3714
        39.2504         26.5004
  22272147.0704   -8304499.74649  -6453979.44147                  22272143.6194
        43.7504         35.2504
  23733121.3014    -418022.91049   -328486.65246                  23733120.4874
        38.7504         19.5004
  21187681.8434   -4359058.23049  -3390960.34048                  21187678.4534
        49.7504         40.0004
  24365398.3124    -596399.10949   -453593.90646                  24365400.9144
        42.2504         22.5004
 04  7  1 18 28 45.0000000  0  9G 3G 9G14G15G18G19G21G22G25
  22379842.0844   -3264458.46549  -2538809.15247                  22379841.7934
        47.5004         34.7504
  23788199.1344   -4376676.28948  -3393355.55146                  23788200.0404
        35.7504         21.7504
  20191839.0894   -8209797.01649  -6383656.46148                  20191836.4844
        49.0004         41.7504
  20264004.0464   -4858443.90249  -3777776.00448                  20264002.8104
        51.2504         42.2504
  23060212.2504   -2126720.54349  -1657284.92647                  23060209.9704
        42.5004         27.5004
  22261503.6594   -8360430.19549  -6497561.60947                  22261500.5964
        44.5004         34.5004
  23733167.3044    -417778.84449   -328296.55946                  23733167.5334
        37.2504         19.2504
  21181639.1714   -4390812.62949  -3415704.03948                  21181635.7484
        51.5004         40.5004
  24346559.0544    -695398.47349   -530736.18046                  24346562.2014
        42.5004         24.5004
 04  7  1 18 29  0.0000000  0  9G 3G 9G14G15G18G19G21G22G25
  22376264.9354   -3283256.00849  -2553456.59847                  22376264.8394
        48.5004         34.5004
  23783495.6624   -4401395.17249  -3412617.03146                  23783496.1834
        37.2504         22.5004
  20181350.6584   -8264912.55549  -6426603.62948                  20181348.6424
        50.2504         41.7504
  20258258.5314   -4888636.82849  -3801302.96548                  20258257.1784
        51.0004         42.0004
  23057250.7364   -2142283.28949  -1669411.77047                  23057249.4944
        42.5004         26.2504
  22250887.4804   -8416217.85249  -6541032.50847                  22250884.4794
        47.0004         34.2504
  23733223.3024    -417481.98448   -328065.28546                  23733223.4844
        34.2504         19.0004
  21175603.4184   -4422530.35949  -3440419.16848                  21175599.8644
        51.5004         40.0004
  24327718.2054    -794408.80949   -607887.04346                  24327721.0814
        43.0004         24.7504
 04  7  1 18 29 15.0000000  0  9G 3G 9G14G15G18G19G21G22G25
  22372705.4394   -3301962.20749  -2568032.89147                  22372704.7994
        48.0004         34.5004
  23778818.3094   -4425973.95749  -3431769.32846                  23778818.4764
        38.5004         22.5004
  20170887.5754   -8319896.31649  -6469448.12148                  20170885.2694
        49.7504         42.2504
  20252535.7924   -4918709.86349  -3824736.49648                  20252534.6614
        51.5004         42.0004
  23054293.0874   -2157827.71149  -1681524.32447                  23054291.0114
        43.0004         27.7504
  22240298.2104   -8471862.13349  -6584391.68747                  22240295.5314
        47.2504         34.5004
  23733290.6284    -417131.86749   -327792.55546                  23733291.1864
        37.2504         19.5004
  21169574.9964   -4454210.89849  -3465105.31648                  21169570.9014
        51.0004         40.0004
  24308875.3504    -893429.21549   -685045.75046                  24308877.8874
        41.7504         23.5004
 04  7  1 18 29 30.0000000  0  9G 3G 9G14G15G18G19G21G22G25
  22369163.0184   -3320577.30949  -2582538.18447                  22369162.4244
        48.2504         33.7504
  23774167.7894   -4450412.72749  -3450812.52746                  23774167.7604
        37.0004         22.5004
  20160449.5574   -8374748.28549  -6512189.90648                  20160447.4274
        49.7504         42.5004
  20246836.2134   -4948663.05949  -3848076.64848                  20246834.8514
        50.2504         42.2504
  23051338.1694   -2173353.75849  -1693622.55947                  23051336.6584
        41.5004         28.5004
  22229737.0614   -8527363.02049  -6627639.13747                  22229734.3694
        47.0004         35.5004
  23733366.8284    -416728.18449   -327478.09446                  23733367.5274
        36.5004         20.0004
  21163553.6404   -4485854.20349  -3489762.43448                  21163549.8274
        49.7504         40.2504
  24290030.3634    -992459.32849   -762212.00846                  24290032.8524
        40.7504         22.7504
 04  7  1 18 29 45.0000000  0  9G 3G 9G14G15G18G19G21G22G25
  22365638.2014   -3339101.48049  -2596972.61347                  22365637.7814
        47.7504         33.5004
  23769543.6894   -4474711.52349  -3469746.69146                  23769543.7054
        36.0004         21.7504
  20150036.9054   -8429468.34849  -6554828.91048                  20150034.7164
        50.0004         42.2504
  20241158.9704   -4978496.13749  -3871323.20348                  20241157.7184
        52.0004         42.0004
  23048387.8514   -2188861.29349  -1705706.36747                  23048385.7134
        42.5004         28.0004
  22219203.1074   -8582720.28149  -6670774.67647                  22219200.1884
        47.2504         35.5004
  23733454.5324    -416271.19149   -327122.03546                  23733454.2284
        38.7504         20.5004
  21157539.0444   -4517460.15649  -3514390.45748                  21157535.3914
        50.7504         39.7504
  24271183.6484   -1091498.64149   -839385.44546                  24271186.3974
        41.2504         22.7504
 04  7  1 18 30  0.0000000  0  9G 3G 9G14G15G18G19G21G22G25
  22362130.1774   -3357535.68749  -2611336.94147                  22362129.7584
        48.5004         33.5004
  23764947.6454   -4498871.13749  -3488572.39146                  23764946.4514
        37.5004         22.2504
  20139648.4834   -8484057.21549  -6597365.68748                  20139646.6064
        49.5004         42.2504
  20235504.5354   -5008209.77049  -3894476.69148                  20235503.4024
        50.7504         42.2504
  23045439.3334   -2204350.99249  -1717776.27747                  23045438.6564
        43.0004         27.7504
  22208696.1174   -8637934.45749  -6713798.71547                  22208693.4654
        47.2504         34.7504
  23733551.2154    -415761.97749   -326725.28146                  23733551.5054
        37.0004         20.0004
  21151531.7784   -4549029.43049  -3538989.89548                  21151528.1514
        50.7504         40.2504
  24252335.6624   -1190547.18049   -916566.05146                  24252337.9194
        42.0004         24.7504
 04  7  1 18 30 15.0000000  0  9G 3G 9G14G15G18G19G21G22G25
  22358639.3954   -3375879.19549  -2625630.60947                  22358639.1254
        47.5004         33.5004
  23760376.4544   -4522890.84849  -3507289.06646                  23760376.1104
        39.0004         23.0004
  20129285.9624   -8538513.95749  -6639799.51248                  20129283.5944
        49.5004         42.2504
  20229873.2204   -5037802.95349  -3917536.32448                  20229872.0504
        52.0004         42.0004
  23042495.6204   -2219821.81249  -1729831.48047                  23042494.2664
        43.0004         27.7504
  22198216.5884   -8693004.69149  -6756710.58647                  22198213.8094
        47.0004         34.7504
  23733658.7884    -415199.63349   -326287.13346                  23733658.7334
        39.0004         20.0004
  21145531.3734   -4580561.06249  -3563560.00448                  21145527.6794
        51.2504         40.5004
  24233485.6404   -1289603.81649   -993753.02346                  24233487.7594
        40.0004         23.5004
 04  7  1 18 30 30.0000000  0  9G 3G 9G14G15G18G19G21G22G25
  22355165.7214   -3394133.91049  -2639855.07847                  22355165.3704
        47.2504         33.5004
  23755831.7644   -4546772.32849  -3525898.03546                  23755831.3854
        39.0004         22.7504
  20118948.1074   -8592840.14549  -6682131.59448                  20118945.7114
        49.5004         42.0004
  20224264.4864   -5067277.25449  -3940503.32048                  20224263.1504
        52.0004         42.0004
  23039555.6104   -2235275.38749  -1741873.25047                  23039553.7754
        43.5004         28.7504
  22187764.3474   -8747932.43049  -6799511.42647                  22187761.3164
        47.5004         34.2504
  23733775.4804    -414585.91449   -325808.98846                  23733775.4614
        38.5004         19.0004
  21139538.0474   -4612056.59049  -3588101.98048                  21139534.3874
        51.5004         40.0004
  24214633.1794   -1388669.77749  -1070947.22346                  24214636.3554
        39.0004         22.5004
 04  7  1 18 30 45.0000000  0  9G 3G 9G14G15G18G19G21G22G25
  22351709.4264   -3412297.56249  -2654008.60547                  22351708.5744
        47.5004         33.5004
  23751314.4824   -4570513.23049  -3544397.49246                  23751314.0234
        38.0004         22.5004
  20108635.3254   -8647033.39149  -6724360.09448                  20108633.0434
        49.5004         42.0004
  20218678.6674   -5096630.23449  -3963375.77348                  20218677.5154
        51.5004         41.7504
  23036618.2424   -2250709.09849  -1753899.55147                  23036617.5754
        44.0004         27.2504
  22177339.5164   -8802715.14149  -6842199.26647                  22177336.6814
        46.5004         35.0004
  23733902.3774    -413918.44549   -325288.95346                  23733902.3784
        39.0004         20.5004
  21133551.8194   -4643513.57449  -3612613.91048                  21133548.4424
        50.5004         40.0004
  24195780.4504   -1487742.19949  -1148146.42646                  24195783.2334
        40.5004         21.7504
 04  7  1 18 31  0.0000000  0  9G 3G 9G14G15G18G19G21G22G25
  22348269.9984   -3430371.82449  -2668092.46147                  22348269.6014
        48.5004         33.0004
  23746822.4074   -4594115.13349  -3562788.58246                  23746823.2224
        38.0004         25.0004
  20098348.0124   -8701095.00849  -6766486.02748                  20098345.6354
        49.5004         42.0004
  20213115.9204   -5125863.13749  -3986154.66048                  20213114.3654
        52.0004         41.7504
  23033685.1104   -2266124.37149  -1765911.46147                  23033683.6174
        44.7504         27.5004
  22166941.7044   -8857354.01249  -6884775.00447                  22166939.1984
        47.2504         35.0004
  23734040.1834    -413198.63349   -324728.12146                  23734039.4564
        38.2504         20.0004
  21127573.0174   -4674933.28549  -3637096.81248                  21127569.5344
        51.5004         39.7504
  24176926.5404   -1586821.86349  -1225351.30946                  24176929.7134
        41.0004         22.5004
 04  7  1 18 31 15.0000000  0  9G 3G 9G14G15G18G19G21G22G25
  22344847.6904   -3448355.53149  -2682105.75847                  22344847.2374
        46.7504         33.0004
  23742357.8914   -4617576.65249  -3581070.31646                  23742358.2074
        39.2504         23.0004
  20088085.8274   -8755023.62549  -6808508.31648                  20088083.1294
        49.7504         42.0004
  20207576.0934   -5154974.50049  -4008838.83648                  20207575.1084
        51.0004         41.2504
  23030755.1754   -2281519.76249  -1777907.88747                  23030753.9274
        44.5004         28.0004
  22156571.7504   -8911847.72749  -6927237.64547                  22156569.0994
        47.2504         35.0004
  23734186.1374    -412425.12549   -324125.48846                  23734186.3644
        37.7504         20.0004
  21121601.3574   -4706314.36349  -3661549.60548                  21121597.7254
        51.0004         40.5004
  24158070.7004   -1685907.22749  -1302560.61746                  24158074.3794
        38.2504         21.0004
 04  7  1 18 31 30.0000000  0  9G 3G 9G14G15G18G19G21G22G25
  22641235.0484   -3466248.00449  -2696047.96947                  22641234.6854
        45.7504         33.2504
  24037713.0624   -4640896.58649  -3599241.68746                  24037713.0994
        40.2504         24.0004
  20377641.6554   -8808815.87949  -6850424.36348                  20377639.3194
        50.0004         42.0004
  20501852.4634   -5183962.54749  -4031426.92648                  20501851.0434
        52.0004         41.2504
  23327622.7214   -2296894.30549  -1789888.09047                  23327620.8974
        44.2504         29.0004
  22446023.1644   -8966192.82049  -6969584.46947                  22446020.2564
        47.7504         34.5004
  24034137.0184    -411598.09849   -323481.08246                  24034136.5734
        39.2504         19.2504
  21415429.7024   -4737654.89549  -3685970.80548                  21415426.2804
        51.5004         40.0004
  24439007.8864   -1784991.41849  -1379768.98046                  24439010.8054
        39.5004         18.2504
 04  7  1 18 31 45.0000000  0  9G 3G 9G14G15G18G19G21G22G25
  22637847.3194   -3484051.86749  -2709921.13747                  22637846.9794
        47.0004         33.0004
  24033302.5864   -4664078.03549  -3617305.20746                  24033303.0264
        41.0004         25.0004
  20367430.3074   -8862478.85249  -6892239.66048                  20367427.8614
        49.7504         42.0004
  20496358.8924   -5212830.93049  -4053921.77348                  20496357.6824
        51.7504         41.2504
  23324699.9394   -2312249.99249  -1801853.58247                  23324698.6544
        43.7504         28.5004
  22435708.8554   -9020396.29749  -7011820.96147                  22435705.9364
        46.5004         34.0004
  24034304.4714    -410717.47349   -322794.96146                  24034304.9164
        38.2504         19.2504
  21409472.9654   -4768958.92249  -3710363.54348                  21409469.2234
        51.2504         40.0004
  24420150.5204   -1884087.17249  -1456986.42646                  24420152.3034
        39.0004         18.2504
 04  7  1 18 32  0.0000000  0  9G 3G 9G14G15G18G19G21G22G25
  22634475.9254   -3501767.50049  -2723725.54347                  22634476.1214
        46.2504         32.0004
  24028916.8864   -4687121.00049  -3635260.76247                  24028917.4994
        39.2504         26.0004
  20357243.3584   -8916010.34449  -6933952.51248                  20357241.0644
        48.0004         42.5004
  20490888.3144   -5241579.19549  -4076323.03148                  20490887.3754
        52.0004         41.0004
  23321781.4934   -2327587.06649  -1813804.55947                  23321779.6494
        43.0004         27.5004
  22425421.3774   -9074455.82849  -7053945.27747                  22425418.6754
        44.2504         34.7504
  24034481.8304    -409785.30949   -322068.69546                  24034481.8044
        37.5004         19.2504
  21403523.2604   -4800225.80949  -3734727.35248                  21403519.4994
        52.0004         40.2504
  24401293.2624   -1983188.85249  -1534208.47346                  24401294.2514
        39.5004         18.5004
 04  7  1 18 32 15.0000000  0  9G 3G 9G14G15G18G19G21G22G25
  22631121.7724   -3519393.62149  -2737460.19547                  22631121.9034
        46.7504         31.5004
  24024559.2454   -4710024.00849  -3653107.29347                  24024559.3064
        40.2504         27.0004
  20347082.1144   -8969408.82449  -6975561.70748                  20347079.4574
        46.7504         42.0004
  20485440.7934   -5270205.65249  -4098629.37148                  20485439.9824
        52.0004         42.0004
  23318866.8694   -2342903.88349  -1825739.77747                  23318865.6454
        43.5004         26.7504
  22415161.8014   -9128369.87549  -7095956.22747                  22415159.3344
        42.5004         34.7504
  24034669.2744    -408799.84849   -321300.87946                  24034669.6354
        37.7504         19.0004
  21397580.6124   -4831453.84049  -3759060.89148                  21397576.9734
        51.5004         40.0004
  24382432.8774   -2082294.43449  -1611433.48846                  24382435.5914
        38.0004         19.0004
 04  7  1 18 32 30.0000000  0  9G 3G 9G14G15G18G19G21G22G25
  22627785.5224   -3536928.91449  -2751124.07447                  22627784.5984
        46.7504         31.2504
  24020227.0984   -4732785.68749  -3670843.67247                  24020227.4144
        40.5004         26.0004
  20336946.2384   -9022672.77049  -7017066.08248                  20336943.6384
        47.5004         42.5004
  20480017.0214   -5298708.77049  -4120839.60548                  20480015.8164
        52.2504         41.2504
  23315956.5514   -2358198.96949  -1837658.04347                  23315954.4874
        43.7504         27.5004
  22404930.2544   -9182136.79349  -7137852.52747                  22404928.1654
        43.0004         35.2504
  24034866.7234    -407760.02049   -320490.70746                  24034867.7544
        37.2504         18.2504
  21391645.5554   -4862641.56249  -3783363.02048                  21391642.2244
        51.5004         39.7504
  24363573.8494   -2181402.05949  -1688660.12546                  24363576.5394
        38.7504         19.5004
 04  7  1 18 32 45.0000000  0  9G 3G 9G14G15G18G19G21G22G25
  22624465.0814   -3554375.22749  -2764718.62547                  22624464.9674
        46.0004         31.0004
  24015922.9424   -4755407.64849  -3688471.20346                  24015922.7594
        41.0004         25.5004
  20326835.9764   -9075803.60949  -7058466.73048                  20326833.4644
        48.7504         42.0004
  20474616.3204   -5327089.77049  -4142954.68448                  20474615.1014
        52.0004         41.2504
  23313049.4694   -2373473.70749  -1849560.46547                  23313048.1804
        44.0004         28.0004
  22394726.7424   -9235757.89849  -7179635.21147                  22394724.1464
        45.0004         34.5004
  24035074.9584    -406667.05948   -319639.08646                  24035075.7784
        34.7504         17.0004
  21385718.3334   -4893790.32449  -3807634.78548                  21385714.6034
        51.2504         39.7504
  24344714.3264   -2280512.69549  -1765889.11746                  24344715.9404
        40.7504         19.2504
 04  7  1 18 33  0.0000000  0  9G 3G 9G14G15G18G19G21G22G25
  22621162.1554   -3571734.68449  -2778245.49647                  22621161.1474
        47.2504         31.2504
  24011644.4434   -4777892.02749  -3705991.51247                  24011644.2154
        41.5004         26.2504
  20316749.9694   -9128803.39849  -7099765.26248                  20316747.7294
        50.0004         41.5004
  20469238.3234   -5355350.57049  -4164976.09848                  20469237.1174
        52.0004         41.0004
  23310146.4644   -2388730.02349  -1861448.50447                  23310144.7654
        42.7504         27.7504
  22384549.5764   -9289235.09049  -7221305.76647                  22384547.7804
        47.0004         34.7504
  24035292.4184    -405522.94149   -318747.68046                  24035293.5184
        36.0004         17.5004
  21379797.9834   -4924902.07049  -3831877.71548                  21379794.3974
        51.0004         39.5004
  24325852.6604   -2379627.88749  -1843121.73046                  24325854.6624
        41.5004         19.5004
 04  7  1 18 33 15.0000000  0  9G 3G 9G14G15G18G19G21G22G25
  22617875.1604   -3589005.80549  -2791703.51247                  22617874.8414
        47.0004         32.0004
  24007391.3624   -4800237.13349  -3723403.30547                  24007392.3214
        40.5004         27.0004
  20306689.8964   -9181670.41449  -7140960.34048                  20306687.2454
        50.0004         42.2504
  20463883.7714   -5383489.46149  -4186902.52048                  20463882.4484
        51.5004         41.2504
  23307247.2824   -2403966.01649  -1873320.72747                  23307246.1324
        43.7504         28.7504
  22374401.3454   -9342566.59049  -7262862.78147                  22374399.2964
        46.7504         35.0004
  24035520.3924    -404326.25849   -317815.25846                  24035521.6514
        36.7504         17.5004
  21373885.1504   -4955974.90649  -3856090.32448                  21373881.3144
        51.2504         39.5004
  24306991.6774   -2478745.61349  -1920356.23046                  24306993.0564
        41.2504         19.0004
 04  7  1 18 33 30.0000000  0  9G 3G 9G14G15G18G19G21G22G25
  22614605.6414   -3606187.85249  -2805092.13347                  22614604.9134
        45.2504         32.0004
  24003166.6084   -4822442.11349  -3740705.91847                  24003166.9344
        42.0004         27.2504
  20296655.0844   -9234403.64549  -7182051.16048                  20296652.9864
        50.0004         41.7504
  20458552.5854   -5411505.43749  -4208733.14148                  20458550.6474
        51.5004         41.0004
  23304351.7534   -2419180.75849  -1885176.39847                  23304350.3424
        46.0004         28.5004
  22364280.9274   -9395751.45349  -7304305.53547                  22364278.1804
        47.0004         35.5004
  24035758.4264    -403076.05949   -316841.18046                  24035759.6014
        37.2504         17.7504
  21367979.5694   -4987007.96149  -3880271.93448                  21367976.1854
        50.7504         40.0004
  24288129.2814   -2577864.45749  -1997591.60546                  24288131.4384
        43.2504         20.0004
 04  7  1 18 33 45.0000000  0  9G 3G 9G14G15G18G19G21G22G25
  22611353.1064   -3623279.25449  -2818410.12547                  22611352.6374
        45.0004         31.0004
  23998967.5754   -4844505.21549  -3757897.95746                  23998968.0844
        41.2504         24.2504
  20286646.2334   -9287001.19549  -7223036.26248                  20286643.7824
        49.5004         41.5004
  20453244.6364   -5439396.52749  -4230466.45748                  20453243.6914
        51.7504         41.5004
  23301460.6064   -2434372.25049  -1897013.94547                  23301459.7894
        44.0004         28.0004
  22354188.3524   -9448787.58249  -7345632.39847                  22354185.5884
        46.7504         35.2504
  24036006.5394    -401770.44948   -315823.88346                  24036008.1824
        35.2504         17.0004
  21362082.3504   -5017999.32049  -3904421.04348                  21362078.7404
        50.5004         39.5004
  24269268.1334   -2676982.10949  -2074826.05146                  24269269.5504
        43.5004         19.5004
 04  7  1 18 34  0.0000000  0  9G 3G 9G14G15G18G19G21G22G25
  22608118.3884   -3640280.46949  -2831657.85247                  22608117.4874
        45.0004         30.7504
  23994796.2744   -4866426.80149  -3774979.73047                  23994796.6004
        41.7504         26.0004
  20276662.6364   -9339463.32849  -7263915.83648                  20276660.5184
        49.7504         42.0004
  20447961.3224   -5467162.96149  -4252102.63348                  20447959.5124
        52.2504         40.7504
  23298574.8724   -2449540.69549  -1908833.54347                  23298573.4904
        44.0004         28.7504
  22344124.4494   -9501675.16049  -7386843.51647                  22344122.0224
        48.0004         35.7504
  24036265.4084    -400409.68748   -314763.67246                  24036267.2224
        34.5004         17.0004
  21356192.6644   -5048949.20349  -3928537.83248                  21356189.1394
        51.5004         39.7504
  24250406.5004   -2776098.43749  -2152059.50046                  24250408.2734
        44.0004         20.5004
 04  7  1 18 34 15.0000000  0  9G 3G 9G14G15G18G19G21G22G25
  22604900.4134   -3657190.96149  -2844834.87947                  22604899.9614
        44.5004         31.0004
  23990651.7234   -4888206.17649  -3791950.68447                  23990652.3074
        41.2504         26.5004
  20266705.8424   -9391789.17249  -7304689.22348                  20266703.2474
        49.5004         41.2504
  20442701.2974   -5494803.89849  -4273641.03548                  20442700.1894
        51.5004         41.2504
  23295693.1414   -2464685.13349  -1920634.41047                  23295691.6944
        42.2504         28.0004
  22334088.9774   -9554413.41449  -7427938.26647                  22334086.0654
        48.2504         36.0004
  24036536.6714    -398993.23849   -313660.02046                  24036536.5654
        38.0004         17.0004
  21350311.3714   -5079856.73449  -3952621.63348                  21350307.4634
        50.7504         39.7504
  24231545.6764   -2875212.01649  -2229290.77046                  24231548.3434
        44.0004         21.7504
 04  7  1 18 34 30.0000000  0  9G 3G 9G14G15G18G19G21G22G25
  22601699.7224   -3674010.09849  -2857940.71547                  22601698.6974
        44.5004         31.7504
  23986534.4004   -4909842.65249  -3808810.29747                  23986535.1934
        41.5004         26.5004
  20256774.0334   -9443977.96149  -7345355.80148                  20256771.8714
        49.5004         41.7504
  20437465.8404   -5522318.38349  -4295080.90248                  20437463.8754
        51.5004         40.5004
  23292815.6784   -2479804.62149  -1932415.85947                  23292814.7924
        45.0004         29.5004
  22324081.8194   -9607001.38349  -7468915.90647                  22324079.0234
        49.2504         36.0004
  24036815.8354    -397520.56649   -312512.57046                  24036816.3264
        37.2504         17.5004
  21344438.1264   -5110720.99249  -3976671.70748                  21344434.4244
        50.2504         39.5004
  24212685.9144   -2974321.60549  -2306518.91046                  24212687.9464
        44.5004         22.7504
 04  7  1 18 34 45.0000000  0  9G 3G 9G14G15G18G19G21G22G25
  22598516.3694   -3690736.99649  -2870974.66447                  22598515.6264
        46.5004         32.0004
  23982444.8254   -4931335.16049  -3825557.71546                  23982445.0784
        42.2504         25.5004
  20246869.8804   -9496028.58249  -7385914.72748                  20246867.6754
        50.2504         41.2504
  20432253.7244   -5549705.21949  -4316421.29748                  20432252.9434
        51.2504         41.7504
  23289943.3994   -2494898.03549  -1944176.98447                  23289942.4074
        44.7504         29.5004
  22314103.4514   -9659437.87149  -7509775.52047                  22314100.3634
        49.0004         36.5004
  24037106.6694    -395990.65249   -311320.46946                  24037107.4514
        38.5004         17.0004
  21338573.2624   -5141540.77749  -4000687.13348                  21338569.6344
        51.0004         39.5004
  24193827.0844   -3073425.78549  -2383742.87146                  24193828.5174
        43.5004         22.2504
 04  7  1 18 35  0.0000000  0  9G 3G 9G14G15G18G19G21G22G25
  22595350.9094   -3707371.91449  -2883936.95347                  22595350.2664
        45.7504         31.5004
  23978381.9724   -4952683.94149  -3842193.17246                  23978382.8694
        40.0004         25.2504
  20236991.2034   -9547940.93749  -7426365.91448                  20236988.6474
        50.0004         41.7504
  20427066.7404   -5576964.35549  -4337662.18048                  20427065.9654
        51.5004         41.0004
  23287076.1824   -2509965.24649  -1955917.68447                  23287075.1104
        44.5004         29.2504
  22304154.0234   -9711722.71949  -7550516.96147                  22304150.4794
        48.5004         36.0004
  24037409.7624    -394403.52349   -310083.84846                  24037409.9484
        39.0004         18.5004
  21332716.7404   -5172316.00049  -4024667.82048                  21332713.1344
        50.2504         40.0004
  24174968.8144   -3172524.05549  -2460962.20346                  24174970.6634
        43.0004         21.5004
 04  7  1 18 35 15.0000000  0  9G 3G 9G14G15G18G19G21G22G25
  22592202.9734   -3723915.71949  -2896828.25447                  22592202.1264
        44.2504         31.2504
  23974347.1734   -4973889.69949  -3858717.14546                  23974347.0824
        40.5004         23.7504
  20227138.4084   -9599715.75849  -7466709.92648                  20227136.0934
        49.2504         41.7504
  20421903.6464   -5604096.30549  -4358803.97348                  20421902.5464
        51.5004         41.0004
  23284213.6684   -2525006.83249  -1967638.42647                  23284213.4084
        44.0004         28.5004
  22294233.4844   -9763856.53149  -7591140.70747                  22294229.9184
        48.5004         35.5004
  24037721.3844    -392759.63349   -308802.98446                  24037722.5664
        38.0004         17.5004
  21326868.6594   -5203047.33249  -4048614.32848                  21326865.2704
        50.2504         40.5004
  24156112.0904   -3271616.66449  -2538177.10246                  24156113.8994
        44.0004         23.0004
 04  7  1 18 35 30.0000000  0  9G 3G 9G14G15G18G19G21G22G25
  22589072.0004   -3740366.71549  -2909647.21947                  22589072.2204
        44.7504         31.2504
  23970338.8864   -4994950.54349  -3875128.22346                  23970338.9894
        41.7504         24.5004
  20217312.2914   -9651351.03549  -7506945.20348                  20217310.4434
        48.2504         41.7504
  20416765.2404   -5631099.00849  -4379845.05548                  20416764.1084
        52.0004         41.2504
  23281356.6004   -2540020.63349  -1979337.51647                  23281355.5764
        43.7504         28.7504
  22284341.7464   -9815837.29749  -7631645.20347                  22284338.0254
        47.0004         35.0004
  24038046.4324    -391057.05549   -307476.41046                  24038046.8624
        38.0004         15.5004
  21321029.4164   -5233732.69149  -4072525.01248                  21321026.2704
        50.5004         40.7504
  24137257.2904   -3370701.27049  -2615385.79346                  24137259.1424
        44.0004         24.5004
 04  7  1 18 35 45.0000000  0  9G 3G 9G14G15G18G19G21G22G25
  22585959.8074   -3756724.71549  -2922393.72347                  22585959.2294
        44.5004         32.0004
  23966359.4674   -5015866.25849  -3891426.19146                  23966360.1084
        41.5004         25.0004
  20207513.2704   -9702846.41449  -7547071.46548                  20207510.8224
        47.0004         42.0004
  20411651.4664   -5657972.08649  -4400785.13748                  20411650.2614
        52.0004         41.2504
  23278505.3764   -2555006.32849  -1991014.70347                  23278503.4884
        44.0004         28.5004
  22274479.6104   -9867664.48849  -7672030.03947                  22274475.8234
        45.2504         35.0004
  24038381.8184    -389295.77349   -306104.00046                  24038381.6594
        38.2504         17.0004
  21315199.2484   -5264371.50449  -4096399.41048                  21315195.7324
        49.5004         40.2504
  24118403.1564   -3469777.00849  -2692587.55146                  24118405.2614
        42.0004         22.0004
 04  7  1 18 36  0.0000000  0  9G 3G 9G14G15G18G19G21G22G25
  22582864.2734   -3772991.20749  -2935068.94147                  22582863.6994
        47.0004         32.2504
  23962406.3214   -5036638.12949  -3907612.10246                  23962406.5344
        42.0004         23.2504
  20197740.6814   -9754203.12949  -7587089.68448                  20197738.2604
        46.7504         42.0004
  20406562.2594   -5684716.67249  -4421625.07448                  20406560.8344
        52.0004         40.7504
  23275659.1584   -2569965.05149  -2002670.87147                  23275658.3554
        45.0004         29.0004
  22264645.8414   -9919339.41049  -7712296.20347                  22264642.4054
        44.2504         34.5004
  24038727.1734    -387476.87949   -304686.78546                  24038727.6674
        39.7504         16.2504
  21309377.5284   -5294965.05149  -4120238.54748                  21309373.9884
        51.0004         40.0004
  24099551.3324   -3568844.64549  -2769782.95746                  24099553.4674
        42.7504         23.5004
 04  7  1 18 36 15.0000000  0  9G 3G 9G14G15G18G19G21G22G25
  22579786.2644   -3789168.80549  -2947674.87147                  22579785.2734
        46.0004         32.0004
  23958481.1944   -5057268.60549  -3923687.81646                  23958481.1284
        42.5004         24.7504
  20187993.7054   -9805423.46949  -7627001.62548                  20187991.1934
        46.5004         42.0004
  20401496.7484   -5711334.97349  -4442366.60548                  20401495.7374
        51.0004         41.0004
  23272816.7744   -2584899.07049  -2014307.79347                  23272816.2024
        42.5004         26.7504
  22254840.7194   -9970864.17649  -7752445.37947                  22254837.7134
        44.5004         34.7504
  24039084.6144    -385602.80549   -303226.55546                  24039083.9224
        40.5004         16.2504
  21303563.6524   -5325515.55549  -4144044.14848                  21303560.1064
        50.0004         39.7504
  24080700.5804   -3667906.01649  -2846973.55946                  24080702.3074
        42.5004         22.5004
 04  7  1 18 36 30.0000000  0  9G 3G 9G14G15G18G19G21G22G25
  22576724.5344   -3805256.92649  -2960211.09047                  22576723.9224
        45.2504         31.7504
  23954582.1984   -5077757.15249  -3939652.93446                  23954582.3934
        42.2504         22.7504
  20178272.8414   -9856506.71149  -7666806.75048                  20178270.3384
        47.5004         41.7504
  20396455.5934   -5737826.18049  -4463009.10248                  20396454.1654
        51.0004         41.2504
  23269980.4124   -2599807.41449  -2025924.69547                  23269978.6874
        43.5004         28.2504
  22245064.8454  -10022237.95749  -7792476.90247                  22245061.7084
        45.5004         35.2504
  24039451.1144    -383673.11749   -301722.93746                  24039451.3394
        37.7504         17.0004
  21297758.8304   -5356022.30949  -4167815.65247                  21297755.2204
        50.5004         39.2504
  24061850.7804   -3766959.95749  -2924158.32846                  24061853.2624
        41.5004         21.7504
 04  7  1 18 36 45.0000000  0  9G 3G 9G14G15G18G19G21G22G25
  22573680.0934   -3821256.59849  -2972678.37947                  22573679.5974
        45.5004         32.5004
  23950709.6574   -5098104.68749  -3955508.16446                  23950710.0414
        41.0004         23.2504
  20168578.1594   -9907453.59049  -7706505.60948                  20168575.5674
        48.5004         41.7504
  20391438.6954   -5764191.09049  -4483553.18748                  20391437.3794
        50.2504         40.2504
  23267147.9974   -2614691.04349  -2037522.35247                  23267146.8344
        43.5004         28.7504
  22235317.5794  -10073461.57849  -7832391.41847                  22235313.9504
        46.2504         35.0004
  24039828.7194    -381688.73449   -300176.73846                  24039828.6774
        39.0004         17.5004
  21291961.7254   -5386485.97749  -4191553.58248                  21291958.1284
        49.5004         39.5004
  24043002.7824   -3866006.90649  -3001337.61746                  24043005.1334
        41.5004         21.7504
 04  7  1 18 37  0.0000000  0  9G 3G 9G14G15G18G19G21G22G25
  22570651.8584   -3837168.09849  -2985076.96547                  22570651.8024
        46.0004         33.5004
  23946864.9454   -5118311.28949  -3971253.56646                  23946864.8964
        41.5004         22.5004
  20158909.1694   -9958264.18449  -7746098.27748                  20158906.7944
        49.2504         41.7504
  20386445.5464   -5790429.60249  -4503998.78948                  20386444.3554
        51.5004         40.0004
  23264320.1674   -2629549.64549  -2049100.50847                  23264318.7894
        43.5004         28.5004
  22225598.0014  -10124534.97749  -7872188.87547                  22225595.0294
        47.7504         34.7504
  24040217.0874    -379649.87549   -298588.07846                  24040217.1144
        39.0004         17.0004
  21286172.6504   -5416906.50849  -4215257.89148                  21286169.0174
        50.0004         40.5004
  24024156.4424   -3965046.34449  -3078511.12546                  24024158.1564
        41.5004         22.5004
 04  7  1 18 37 15.0000000  0  9G 3G 9G14G15G18G19G21G22G25
  22567640.4184   -3852994.01249  -2997408.87147                  22567639.9754
        46.2504         33.7504
  23943046.1364   -5138379.38349  -3986891.05146                  23943046.5834
        41.5004         24.0004
  20149265.6224  -10008940.85549  -7785586.59048                  20149263.1894
        49.5004         41.2504
  20381476.3314   -5816543.98049  -4524347.65648                  20381475.1364
        51.2504         41.0004
  23261497.0584   -2644385.41049  -2060660.84847                  23261495.3754
        44.0004         27.7504
  22215907.5434  -10175460.36749  -7911870.99647                  22215904.5654
        48.0004         35.5004
  24040615.3614    -377558.94549   -296958.91446                  24040615.4364
        38.5004         16.2504
  21280391.6554   -5447286.17249  -4238930.35548                  21280388.1154
        50.2504         39.5004
  24005309.8434   -4064080.19149  -3155680.23046                  24005313.0384
        39.5004         21.7504
 04  7  1 18 37 30.0000000  0  9G 3G 9G14G15G18G19G21G22G25
  22564645.0574   -3868734.40649  -3009674.12147                  22564644.7524
        44.7504         33.2504
  23939253.5274   -5158308.89849  -4002420.55946                  23939254.0544
        41.2504         24.0004
  20139647.6614  -10059483.34449  -7824970.34848                  20139645.1094
        49.5004         41.2504
  20376530.4444   -5842533.94949  -4544599.58248                  20376529.1934
        51.2504         40.7504
  23258677.9544   -2659198.19949  -2072203.30147                  23258677.0494
        42.5004         27.5004
  22206244.4174  -10226237.37949  -7951437.50847                  22206242.0134
        47.7504         35.0004
  24041022.7124    -375415.23449   -295288.56646                  24041023.0424
        37.0004         15.5004
  21274618.6354   -5477624.71549  -4262570.77748                  21274614.6494
        49.2504         39.7504
  23986466.3174   -4163107.91049  -3232844.53146                  23986467.7264
        40.5004         22.7504
 04  7  1 18 37 45.0000000  0  9G 3G 9G14G15G18G19G21G22G25
  22561666.1724   -3884390.41449  -3021873.62947                  22561665.4864
        46.7504         33.7504
  23935487.4114   -5178100.85949  -4017842.91846                  23935487.9964
        41.5004         23.0004
  20130055.1494  -10109892.59849  -7864250.27748                  20130052.6724
        49.2504         42.0004
  20371608.4774   -5868400.41449  -4564755.27348                  20371607.1184
        51.5004         40.7504
  23255863.8204   -2673988.73049  -2083728.41847                  23255862.4194
        45.2504         27.7504
  22196610.3634  -10276867.02749  -7990889.18447                  22196607.8034
        46.7504         35.0004
  24041441.0044    -373219.87949   -293577.94946                  24041440.9724
        38.5004         14.7504
  21268852.7804   -5507923.00849  -4286179.85547                  21268849.0444
        50.2504         39.0004
  23967623.0504   -4262129.71549  -3310004.28146                  23967625.0664
        41.0004         22.5004
 04  7  1 18 38  0.0000000  0  9G 3G 9G14G15G18G19G21G22G25
  22558702.4224   -3899964.38349  -3034009.21947                  22558702.2154
        46.0004         33.7504
  23931746.6164   -5197757.56649  -4033159.83646                  23931746.7824
        41.5004         22.7504
  20120487.8354  -10160170.75849  -7903428.06248                  20120485.0954
        49.0004         41.5004
  20366709.1404   -5894145.45349  -4584816.34848                  20366707.7224
        51.0004         41.0004
  23253052.8904   -2688759.05549  -2095237.78547                  23253051.4774
        43.0004         27.2504
  22187003.5374  -10327351.29749  -8030227.58647                  22187000.5064
        46.7504         35.0004
  24041867.8544    -370975.31249   -291829.05946                  24041867.4844
        39.0004         16.2504
  21263094.6374   -5538183.06649  -4309759.12147                  21263091.0194
        49.7504         38.5004
  23948779.6304   -4361147.44549  -3387160.85946                  23948782.0934
        40.5004         22.2504
 04  7  1 18 38 15.0000000  0  9G 3G 9G14G15G18G19G21G22G25
  22555754.6124   -3915455.55149  -3046080.27347                  22555754.3724
        45.2504         33.2504
  23928031.8934   -5217278.14549  -4048370.67646                  23928031.6744
        41.2504         22.5004
  20110944.8764  -10210316.83649  -7942502.91848                  20110942.4024
        48.7504         41.0004
  20361833.5244   -5919768.03149  -4604782.00448                  20361831.8774
        51.5004         40.2504
  23250246.4204   -2703508.12949  -2106730.57447                  23250245.6234
        43.5004         27.7504
  22177424.3174  -10377689.20749  -8069451.93047                  22177421.5594
        46.0004         35.0004
  24042305.4564    -368680.80549   -290041.19146                  24042303.8824
        38.7504         14.7504
  21257343.6324   -5568403.86349  -4333307.79347                  21257340.0664
        49.7504         39.0004
  23929938.8004   -4460159.77049  -3464313.19946                  23929940.2344
        41.5004         22.0004
 04  7  1 18 38 30.0000000  0  9G 3G 9G14G15G18G19G21G22G25
  22552822.2124   -3930863.44549  -3058086.44547                  22552822.1834
        46.5004         32.5004
  23924343.8284   -5236661.96549  -4063474.96146                  23924343.2164
        41.7504         22.0004
  20101427.5774  -10260330.03549  -7981474.23848                  20101425.4224
        47.7504         41.5004
  20356980.9084   -5945267.31249  -4624651.57848                  20356979.7724
        51.2504         40.2504
  23247444.2594   -2718235.05549  -2118206.12947                  23247442.6664
        42.5004         26.7504
  22167873.2064  -10427879.84849  -8108561.53147                  22167870.4174
        46.5004         34.7504
  24042750.9994    -366335.54749   -288213.75446                  24042749.6414
        37.5004         14.7504
  21251600.5134   -5598584.53149  -4356825.19947                  21251596.9644
        50.0004         39.0004
  23911098.4234   -4559165.40649  -3541460.34046                  23911100.1114
        42.0004         22.5004
 04  7  1 18 38 45.0000000  0  9G 3G 9G14G15G18G19G21G22G25
  22549905.9094   -3946188.95749  -3070028.41847                  22549905.7114
        45.0004         32.7504
  23920680.9154   -5255909.76249  -4078473.25446                  23920680.2904
        40.5004         22.0004
  20091935.5754  -10310211.11749  -8020342.60948                  20091933.4774
        47.5004         42.0004
  20352151.9534   -5970643.77049  -4644425.44948                  20352150.5534
        51.0004         40.2504
  23244645.6784   -2732940.46149  -2129664.90647                  23244644.8714
        41.5004         27.2504
  22158350.7004  -10477923.86349  -8147556.87547                  22158347.6044
        45.2504         35.0004
  24043207.1504    -363940.17249   -286347.27746                  24043205.4134
        37.7504         15.5004
  21245864.9684   -5628725.63749  -4380311.77347                  21245860.9844
        50.0004         39.2504
  23892259.6564   -4658164.54749  -3618602.42246                  23892261.1724
        41.5004         22.2504
 04  7  1 18 39  0.0000000  0  9G 3G 9G14G15G18G19G21G22G25
  22547005.1124   -3961432.44949  -3081906.48447                  22547005.1534
        43.0004         33.5004
  23917043.7424   -5275021.80949  -4093365.80146                  23917043.4734
        40.2504         21.2504
  20082468.5424  -10359960.12549  -8059108.06248                  20082466.4494
        47.0004         41.5004
  20347346.2714   -5995897.58249  -4664103.75448                  20347345.1854
        51.7504         40.5004
  23241851.6774   -2747624.36349  -2141106.93447                  23241849.8984
        40.7504         27.0004
  22148855.2764  -10527821.32049  -8186438.01247                  22148852.2324
        44.5004         34.7504
  24043672.2274    -361495.20349   -284442.16846                  24043670.4114
        36.7504         14.0004
  21240137.0834   -5658827.25049  -4403767.57447                  21240133.0454
        50.0004         38.5004
  23873421.3834   -4757156.88349  -3695739.22746                  23873423.8984
        41.7504         22.0004
 04  7  1 18 39 15.0000000  0  9G 3G 9G14G15G18G19G21G22G25
  22544119.9174   -3976594.98449  -3093721.46947                  22544119.7684
        44.0004         32.7504
  23913432.5764   -5293999.18749  -4108153.38346                  23913431.6604
        40.0004         21.7504
  20073026.9754  -10409577.92649  -8097771.28148                  20073024.5984
        46.7504         42.2504
  20342563.8154   -6021029.49649  -4683687.07448                  20342562.7124
        51.5004         41.0004
  23239061.0784   -2762287.59049  -2152532.83247                  23239060.5054
        40.0004         27.5004
  22139387.9094  -10577572.98449  -8225205.54747                  22139384.9364
        44.5004         35.5004
  24044146.4744    -359001.21148   -282498.96546                  24044144.8484
        35.5004         14.0004
  21234415.4104   -5688890.13749  -4427193.19547                  21234412.0014
        50.2504         38.7504
  23854585.9764   -4856142.77049  -3772871.01646                  23854586.2114
        41.0004         20.5004
 04  7  1 18 39 30.0000000  0  9G 3G 9G14G15G18G19G21G22G25
  22841042.9344   -3991674.45749  -3105471.72747                  22841042.9624
        44.0004         33.2504
  24209639.9594   -5312839.34449  -4122834.06246                  24209639.5044
        38.7504         20.5004
  20363403.2684  -10459059.93749  -8136328.68748                  20363400.5944
        46.0004         42.0004
  20637597.7354   -6046036.48449  -4703173.04748                  20637596.3534
        51.2504         41.2504
  23536067.8254   -2776927.60949  -2163940.68447                  23536066.4894
        40.0004         27.5004
  22429741.9534  -10627174.14149  -8263855.80547                  22429738.6124
        43.7504         35.0004
  24344422.5934    -356457.37948   -280516.82446                  24344422.5454
        35.0004         14.7504
  21528495.7934   -5718910.86349  -4450585.96947                  21528491.8514
        50.2504         39.0004
  24135543.7634   -4955113.83249  -3849991.20746                  24135546.0894
        41.5004         21.7504
 04  7  1 18 39 45.0000000  0  9G 3G 9G14G15G18G19G21G22G25
  22838188.8984   -4006672.46949  -3117158.51647                  22838188.6544
        45.0004         33.2504
  24206080.3714   -5331544.20749  -4137409.25846                  24206080.6804
        39.0004         21.2504
  20354012.0154  -10508412.05549  -8174784.88348                  20354009.3664
        47.0004         42.0004
  20632862.5984   -6070921.05949  -4722563.62948                  20632861.1824
        51.5004         40.5004
  23533286.1174   -2791545.68449  -2175331.39847                  23533284.8004
        41.0004         28.0004
  22420330.3624  -10676630.64149  -8302393.33647                  22420327.5864
        43.2504         35.5004
  24344917.7124    -353862.54749   -278494.96146                  24344916.7964
        37.0004         15.5004
  21522790.1214   -5748892.74249  -4473948.46947                  21522786.6824
        50.0004         39.2504
  24116710.8124   -5054082.19549  -3927109.29346                  24116711.8354
        40.5004         21.2504
 04  7  1 18 40  0.0000000  0  9G 3G 9G14G15G18G19G21G22G25
  22835350.4224   -4021590.02749  -3128782.59047                  22835350.3554
        44.2504         33.0004
  24202546.1584   -5350114.44149  -4151879.61346                  24202546.7994
        38.5004         20.5004
  20344645.1474  -10557632.69549  -8213138.62148                  20344643.0204
        47.0004         41.7504
  20628150.1314   -6095683.42649  -4741858.98448                  20628149.0114
        51.0004         40.5004
  23530508.1974   -2806142.46549  -2186705.55147                  23530507.4934
        41.5004         27.2504
  22410946.8164  -10725940.96949  -8340816.97747                  22410943.6744
        43.0004         35.0004
  24345420.5954    -351218.92249   -276435.04346                  24345419.8254
        38.2504         17.0004
  21517092.6764   -5778835.43049  -4497280.44147                  21517088.8314
        50.0004         39.0004
  24097878.6414   -5153042.52349  -4004221.19946                  24097880.0274
        38.7504         20.0004
 04  7  1 18 40 15.0000000  0  9G 3G 9G14G15G18G19G21G22G25
  22832526.5724   -4036427.31249  -3140344.15247                  22832526.3274
        45.0004         32.5004
  24199038.2964   -5368550.18749  -4166245.16046                  24199038.3994
        37.7504         21.7504
  20335303.9164  -10606721.98449  -8251390.01248                  20335301.7624
        47.2504         41.5004
  20623461.4214   -6120323.48049  -4761059.03548                  20623460.3104
        51.0004         41.0004
  23527735.1694   -2820717.92249  -2198063.08247                  23527733.7734
        43.2504         26.5004
  22401590.8784  -10775105.03549  -8379126.63347                  22401587.8104
        43.5004         35.5004
  24345932.9354    -348526.47349   -274337.10246                  24345932.5364
        38.0004         17.0004
  21511401.5354   -5808738.85949  -4520581.80947                  21511397.9974
        50.2504         38.7504
  24079048.7294   -5251994.59049  -4081326.58246                  24079050.6984
        38.5004         20.5004
 04  7  1 18 40 30.0000000  0  9G 3G 9G14G15G18G19G21G22G25
  22829718.9684   -4051183.72349  -3151842.67647                  22829718.5144
        46.0004         33.2504
  24195555.8144   -5386850.71949  -4180505.32846                  24195555.8034
        40.0004         21.5004
  20325987.7424  -10655678.96149  -8289538.30548                  20325985.4814
        48.0004         41.5004
  20618795.9434   -6144840.27049  -4780163.02748                  20618794.6564
        51.2504         40.7504
  23524965.0924   -2835270.98449  -2209403.14547                  23524964.1224
        43.0004         28.0004
  22392263.3954  -10824121.92649  -8417321.61747                  22392260.7554
        43.0004         35.2504
  24346455.3844    -345784.74649   -272200.79746                  24346455.0254
        38.5004         16.2504
  21505719.2854   -5838602.06649  -4543851.83248                  21505715.7644
        50.5004         39.5004
  24060220.4994   -5350936.75849  -4158424.26646                  24060222.6444
        38.7504         21.7504
 04  7  1 18 40 45.0000000  0  9G 3G 9G14G15G18G19G21G22G25
  22826926.2344   -4065859.49649  -3163278.37547                  22826925.8204
        46.2504         32.7504
  24192098.6644   -5405016.19549  -4194660.28546                  24192100.1274
        39.0004         21.7504
  20316696.5794  -10704503.71549  -8327583.56248                  20316694.5364
        48.0004         42.0004
  20614154.1924   -6169233.67249  -4799170.88348                  20614152.9754
        51.7504         40.7504
  23522200.5734   -2849801.50849  -2220725.65647                  23522199.6104
        42.7504         28.0004
  22382963.7734  -10872991.53549  -8455401.83247                  22382960.8484
        43.5004         35.0004
  24346986.3754    -342993.42649   -270025.82446                  24346986.1394
        40.2504         16.2504
  21500043.8624   -5868425.00849  -4567090.49647                  21500040.3044
        50.5004         39.0004
  24041394.8114   -5449868.68449  -4235514.00046                  24041395.8784
        38.0004         21.7504
 04  7  1 18 41  0.0000000  0  9G 3G 9G14G15G18G19G21G22G25
  22824148.0364   -4080456.42249  -3174652.61747                  22824148.3204
        45.7504         32.7504
  24188667.3314   -5423048.19149  -4208711.23846                  24188669.2374
        40.5004         22.2504
  20307430.6744  -10753197.75849  -8365526.96948                  20307428.2054
        46.2504         42.0004
  20609535.4754   -6193505.12549  -4818083.71148                  20609534.0934
        51.7504         41.0004
  23519439.2604   -2864311.01249  -2232031.77747                  23519438.6924
        43.7504         26.5004
  22373691.9774  -10921715.31249  -8493368.42247                  22373688.9154
        42.2504         35.0004
  24347526.9044    -340154.42649   -267813.64546                  24347526.1474
        40.0004         16.2504
  21494375.9204   -5898209.07449  -4590298.85947                  21494372.7634
        50.2504         39.0004
  24022570.0494   -5548791.50049  -4312596.58646                  24022571.8674
        38.0004         21.0004
 04  7  1 18 41 15.0000000  0  9G 3G 9G14G15G18G19G21G22G25
  22821385.5564   -4094974.87949  -3185965.73447                  22821385.6484
        46.0004         32.2504
  24185262.1114   -5440947.01249  -4222658.37546                  24185261.5994
        39.2504         20.0004
  20298189.2224  -10801761.18749  -8403368.59848                  20298186.6104
        47.2504         41.7504
  20604939.9774   -6217654.72749  -4836901.58648                  20604938.6384
        51.0004         41.7504
  23516682.6764   -2878799.48449  -2243321.52047                  23516681.2154
        44.0004         28.5004
  22364448.0494  -10970293.37549  -8531221.46947                  22364444.9724
        43.5004         34.7504
  24348075.8454    -337267.82849   -265564.46546                  24348075.6554
        39.0004         17.7504
  21488715.5974   -5927954.28549  -4613476.95347                  21488712.3144
        50.0004         39.0004
  24003748.5814   -5647704.71949  -4389671.74646                  24003749.7554
        39.2504         23.0004
 04  7  1 18 41 30.0000000  0  9G 3G 9G14G15G18G19G21G22G25
  22818637.8244   -4109416.23049  -3197218.75447                  22818637.7324
        45.0004         32.7504
  24181880.6544   -5458714.09449  -4236502.83246                  24181880.5874
        38.0004         20.0004
  20288972.7644  -10850195.35549  -8441109.50848                  20288970.1014
        46.7504         41.2504
  20600367.2404   -6241683.68449  -4855625.46948                  20600365.8964
        51.0004         40.7504
  23513928.8754   -2893268.10549  -2254595.79747                  23513927.3864
        41.5004         27.5004
  22355231.2954  -11018726.86749  -8568961.85947                  22355228.4794
        43.7504         35.0004
  24348634.7424    -334334.78149   -263279.05146                  24348633.6184
        40.2504         16.2504
  21483063.2074   -5957661.89149  -4636625.74647                  21483059.0204
        48.7504         38.7504
  23984926.6214   -5746609.21949  -4466740.08246                  23984928.6004
        37.7504         24.2504
 04  7  1 18 41 45.0000000  0 10G 3G 9G14G15G18G19G21G22G25G11
  22815904.0294   -4123780.43749  -3208411.66047                  22815904.0084
        46.0004         31.7504
  24178524.5274   -5476349.11349  -4250244.40646                  24178525.2314
        38.2504         19.5004
  20279780.4124  -10898499.84849  -8478749.36348                  20279777.9164
        47.7504         41.5004
  20595817.7884   -6265591.64149  -4874255.05548                  20595816.5744
        52.0004         40.7504
  23511179.9554   -2907716.37549  -2265854.21547                  23511178.0464
        44.0004         28.0004
  22346042.4944  -11067015.43049  -8606589.30147                  22346039.3404
        44.0004         36.0004
  24349201.0384    -331355.06649   -260957.28146                  24349200.9694
        39.7504         18.2504
  21477416.6804   -5987331.40249  -4659744.85247                  21477413.4954
        50.2504         38.7504
  23966107.5544   -5845504.12949  -4543800.91846                  23966109.4714
        39.0004         22.7504
  24678478.8474    -101639.20359    -68056.88756                  24678478.0484
        37.2504         21.7504
 04  7  1 18 42  0.0000000  0 10G 3G 9G14G15G18G19G21G22G25G11
  22813185.6294   -4138066.75849  -3219543.87547                  22813185.1294
        45.5004         32.0004
  24175193.9994   -5493851.32849  -4263882.54746                  24175194.8254
        37.2504         19.2504
  20270613.3604  -10946673.76249  -8516287.48048                  20270610.9404
        47.2504         41.7504
  20591291.3754   -6289377.47749  -4892789.47748                  20591290.0374
        50.2504         41.0004
  23508433.9214   -2922143.13749  -2277095.85547                  23508433.0734
        43.5004         27.0004
  22336881.4724  -11115158.09449  -8644103.06247                  22336878.5394
        43.7504         34.7504
  24349777.1534    -328327.80149   -258598.41446                  24349777.5034
        39.2504         17.7504
  21471778.2694   -6016961.74649  -4682833.43747                  21471774.7884
        49.7504         38.5004
  23947291.4084   -5944388.06249  -4620853.28147                  23947292.2494
        40.5004         25.7504
  24659645.4254    -200613.91049   -145179.98446                  24659643.6494
        38.7504         22.5004
 04  7  1 18 42 15.0000000  0 10G 3G 9G14G15G18G19G21G22G25G11
  22810481.0164   -4152278.46149  -3230617.95347                  22810480.7544
        44.0004         31.7504
  24171889.0694   -5511223.78149  -4277419.56246                  24171889.4424
        38.5004         21.5004
  20261470.5514  -10994720.00849  -8553726.10948                  20261467.8774
        47.5004         41.5004
  20586787.9394   -6313044.23449  -4911231.10548                  20586786.5004
        51.7504         41.2504
  23505692.4734   -2936551.33249  -2288323.05147                  23505691.2424
        43.2504         26.5004
  22327747.3694  -11163157.77749  -8681505.41047                  22327744.5444
        43.5004         35.0004
  24350361.6494    -325256.08249   -256204.93746                  24350362.4694
        37.7504         17.0004
  21466146.6154   -6046555.80549  -4705893.74247                  21466143.2774
        48.5004         38.5004
  23928475.0614   -6043263.62549  -4697899.06646                  23928477.5034
        40.2504         25.5004
  24640813.9934    -299568.24649   -222287.22746                  24640813.2614
        37.2504         21.0004
 04  7  1 18 42 30.0000000  0 10G 3G 9G14G15G18G19G21G22G25G11
  22807790.7164   -4166416.75449  -3241634.82447                  22807790.5954
        45.0004         32.2504
  24168607.3714   -5528467.62549  -4290856.34446                  24168608.4934
        39.7504         22.2504
  20252351.4944  -11042639.68049  -8591066.11348                  20252349.3174
        47.5004         41.5004
  20582306.6814   -6336592.89849  -4929580.71548                  20582305.7214
        51.2504         41.2504
  23502954.4154   -2950941.93449  -2299536.52047                  23502953.0014
        42.2504         26.2504
  22318640.5364  -11211015.45349  -8718797.11747                  22318637.5844
        43.5004         35.7504
  24350954.3134    -322141.07449   -253777.78146                  24350955.2884
        38.2504         17.5004
  21460522.1554   -6076114.59449  -4728926.56247                  21460518.4144
        50.5004         39.2504
  23909661.1254   -6142131.31649  -4774938.73046                  23909662.8064
        41.2504         24.7504
  24621986.7744    -398502.81249   -299379.02046                  24621986.3134
        37.5004         21.2504
 04  7  1 18 42 45.0000000  0 10G 3G 9G14G15G18G19G21G22G25G11
  22805114.6194   -4180481.14549  -3252594.11347                  22805113.9274
        44.5004         32.0004
  24165350.6844   -5545582.34049  -4304192.51246                  24165351.1034
        40.5004         23.5004
  20243257.2164  -11090432.07049  -8628306.93748                  20243254.4644
        47.0004         42.0004
  20577848.4364   -6360022.65249  -4947837.67248                  20577847.0714
        51.2504         41.2504
  23500219.2004   -2965314.02349  -2310735.57847                  23500217.6964
        41.0004         27.2504
  22309560.7794  -11258730.34449  -8755977.55947                  22309558.0854
        43.5004         37.0004
  24351555.8214    -318982.20349   -251316.44946                  24351555.9214
        38.5004         17.0004
  21454904.0794   -6105637.19149  -4751931.18747                  21454900.5814
        49.5004         38.2504
  23890849.0114   -6240989.93049  -4851971.34446                  23890850.6834
        42.5004         24.5004
  24603165.6844    -497416.60949   -376454.71146                  24603163.7294
        38.7504         22.5004
 04  7  1 18 43  0.0000000  0 10G 3G 9G14G15G18G19G21G22G25G11
  22802452.1234   -4194472.87949  -3263496.77347                  22802451.4954
        45.0004         32.0004
  24162118.7754   -5562569.02749  -4317428.93446                  24162118.6724
        41.2504         22.7504
  20234186.3134  -11138098.18049  -8665449.35248                  20234183.7474
        46.0004         41.7504
  20573412.0434   -6383334.32849  -4966002.63348                  20573410.9954
        51.7504         41.0004
  23497487.8844   -2979668.51649  -2321920.93047                  23497485.9914
        40.0004         27.0004
  22300507.7984  -11306303.40249  -8793047.48047                  22300504.8194
        43.5004         36.0004
  24352164.5114    -315780.56249   -248821.73046                  24352165.9384
        37.2504         16.2504
  21449292.7634   -6135124.53949  -4774908.34447                  21449289.3684
        50.0004         38.7504
  23872038.6354   -6339840.00449  -4928997.26646                  23872040.5764
        41.5004         25.5004
  24584346.3994    -596310.12949   -453514.54346                  24584345.1494
        37.7504         22.0004
 04  7  1 18 43 15.0000000  0 10G 3G 9G14G15G18G19G21G22G25G11
  22799803.4364   -4208392.01649  -3274342.86747                  22799802.5874
        44.0004         31.0004
  24158910.4624   -5579427.68449  -4330565.56246                  24158909.6604
        40.5004         22.5004
  20225139.8844  -11185637.79349  -8702493.20748                  20225137.7174
        46.5004         42.0004
  20568998.7974   -6406527.79349  -4984075.48448                  20568997.5724
        51.0004         41.0004
  23494759.4214   -2994005.18749  -2333092.37147                  23494757.8954
        39.7504         26.5004
  22291481.8634  -11353734.48849  -8830006.77047                  22291478.8404
        44.5004         36.0004
  24352781.8714    -312536.19949   -246293.70346                  24352783.3504
        37.5004         16.2504
  21443688.2624   -6164576.41449  -4797857.86347                  21443684.5644
        49.5004         38.7504
  23853229.7294   -6438680.96149  -5006016.10547                  23853231.2204
        42.7504         27.0004
  24565531.1104    -695182.73049   -530558.11346                  24565530.0904
        38.0004         22.5004
 04  7  1 18 43 30.0000000  0 10G 3G 9G14G15G18G19G21G22G25G11
  22797168.4074   -4222239.05149  -3285132.78147                  22797166.9994
        43.7504         31.0004
  24155726.1724   -5596158.76249  -4343602.76646                  24155726.3194
        39.2504         22.7504
  20216117.6474  -11233051.30549  -8739438.80148                  20216115.0434
        46.2504         41.7504
  20564607.5634   -6429603.23449  -5002056.35948                  20564606.2034
        50.7504         40.7504
  23492034.4844   -3008324.14149  -2344250.03947                  23492033.8264
        39.5004         26.2504
  22282483.2894  -11401023.66849  -8866855.48447                  22282480.0674
        45.0004         36.0004
  24353408.1174    -309249.28149   -243732.60246                  24353408.8134
        38.7504         14.7504
  21438090.6644   -6193992.98449  -4820779.87147                  21438087.1844
        49.2504         38.7504
  23834422.2134   -6537512.60949  -5083027.71546                  23834424.3034
        42.7504         25.5004
  24546719.6874    -794034.53549   -607585.41046                  24546719.4504
        38.0004         22.0004
 04  7  1 18 43 45.0000000  0 10G 3G 9G14G15G18G19G21G22G25G11
  22794546.9814   -4236015.49649  -3295867.68047                  22794545.8404
        43.5004         31.5004
  24152566.0684   -5612763.49249  -4356541.53546                  24152567.3144
        40.5004         22.7504
  20207118.6604  -11280339.77049  -8776286.94548                  20207116.3544
        46.7504         41.5004
  20560238.7134   -6452561.82049  -5019946.18748                  20560237.1994
        51.5004         40.7504
  23489313.2584   -3022626.48849  -2355394.74647                  23489311.5844
        40.0004         27.2504
  22273511.2834  -11448172.14549  -8903594.55547                  22273507.7734
        45.7504         36.0004
  24354041.4444    -305920.99249   -241139.14146                  24354042.6234
        38.2504         14.7504
  21432499.3864   -6223375.34449  -4843675.21947                  21432495.5964
        48.7504         38.7504
  23815617.1204   -6636335.79349  -5160032.67247                  23815618.3144
        43.0004         26.2504
  24527913.3914    -892866.27749   -684597.12546                  24527912.5024
        40.5004         23.0004
 04  7  1 18 44  0.0000000  0 10G 3G 9G14G15G18G19G21G22G25G11
  22791938.4124   -4249720.54749  -3306546.96947                  22791937.9314
        44.5004         31.5004
  24149431.2254   -5629241.05149  -4369381.24246                  24149431.4124
        38.7504         22.7504
  20198144.0444  -11327502.25449  -8813036.93448                  20198141.5504
        47.5004         41.7504
  20555892.2234   -6475402.50049  -5037744.12148                  20555891.0474
        52.0004         40.5004
  23486594.9694   -3036911.07449  -2366525.62147                  23486593.5834
        41.5004         26.2504
  22264565.9894  -11495178.75449  -8940223.09047                  22264563.2634
        45.5004         36.2504
  24354682.5934    -302550.42649   -238512.81646                  24354683.6294
        38.2504         16.2504
  21426914.6194   -6252722.43049  -4866543.09047                  21426911.2934
        49.7504         38.5004
  23796813.5404   -6735148.88349  -5237029.80947                  23796814.8594
        45.0004         25.7504
  24509110.7524    -991676.62549   -761592.17646                  24509109.0724
        40.5004         22.2504
 04  7  1 18 44 15.0000000  0 10G 3G 9G14G15G18G19G21G22G25G11
  22789343.8164   -4263354.28949  -3317170.68047                  22789343.5244
        45.2504         30.5004
  24146318.9164   -5645591.43449  -4382121.82046                  24146320.0254
        38.5004         22.5004
  20189193.3144  -11374538.67649  -8849688.68748                  20189191.0874
        48.2504         41.2504
  20551568.3294   -6498125.05149  -5055450.00848                  20551567.2934
        52.0004         41.2504
  23483879.5194   -3051177.72749  -2377642.51247                  23483878.9994
        43.5004         27.2504
  22255647.8164  -11542043.41849  -8976741.02047                  22255645.2264
        46.5004         35.5004
  24355333.2994    -299137.57449   -235853.56646                  24355332.5584
        38.5004         15.5004
  21421336.8984   -6282033.95749  -4889383.24247                  21421333.2254
        50.0004         38.5004
  23778012.1054   -6833951.34849  -5314018.64146                  23778013.2064
        43.2504         25.2504
  24490311.6844   -1090464.97749   -838570.07446                  24490310.6864
        41.7504         23.0004
